GEFSSGP_prec_meanprecacc_198.txt.gz
Total_Precipitation_Accumulation
0.05 0.11 0.32 0.58 1.07 1.52 1.28 0.65 0.49 0.35 0.32 0.44 0.42 0.31 0.34 0.44 0.61 0.94 0.47 0.35 0.18 0.09 0.10 0.19 0.22 0.17 0.18 0.20 0.22 0.24 0.22 0.22 0.21 0.21 0.20 0.22 0.23 0.22 0.22 0.25 0.30 0.32 0.34 0.35 0.37 0.35 0.31 0.29 0.29
0.07 0.17 0.39 0.77 1.44 1.76 1.09 0.49 0.37 0.30 0.36 0.43 0.35 0.28 0.32 0.30 0.26 0.23 0.27 0.35 0.16 0.07 0.08 0.10 0.16 0.15 0.14 0.17 0.19 0.22 0.22 0.22 0.23 0.22 0.21 0.22 0.24 0.27 0.29 0.29 0.30 0.33 0.35 0.31 0.31 0.30 0.26 0.24 0.25
0.11 0.19 0.47 0.83 1.10 1.17 0.61 0.30 0.26 0.27 0.38 0.41 0.33 0.29 0.32 0.36 0.33 0.26 0.20 0.21 0.14 0.08 0.08 0.11 0.13 0.13 0.13 0.14 0.17 0.19 0.20 0.21 0.22 0.21 0.21 0.22 0.25 0.31 0.32 0.33 0.32 0.35 0.33 0.30 0.32 0.29 0.26 0.24 0.25
0.14 0.26 0.46 0.65 0.73 0.60 0.35 0.24 0.23 0.27 0.38 0.33 0.29 0.38 0.43 0.48 0.31 0.25 0.20 0.15 0.12 0.10 0.10 0.12 0.14 0.13 0.12 0.13 0.15 0.17 0.20 0.22 0.23 0.20 0.22 0.24 0.30 0.32 0.31 0.31 0.33 0.33 0.30 0.29 0.28 0.26 0.25 0.25 0.27
0.16 0.35 0.55 0.63 0.54 0.36 0.27 0.24 0.25 0.25 0.24 0.31 0.35 0.53 0.59 0.55 0.34 0.38 0.38 0.24 0.11 0.11 0.13 0.15 0.17 0.15 0.14 0.15 0.16 0.18 0.19 0.20 0.22 0.20 0.22 0.24 0.30 0.31 0.30 0.29 0.30 0.29 0.26 0.27 0.28 0.28 0.25 0.28 0.31
0.20 0.32 0.42 0.46 0.35 0.23 0.25 0.24 0.21 0.21 0.26 0.36 0.46 0.48 0.63 0.57 0.46 0.64 0.57 0.41 0.22 0.17 0.20 0.23 0.24 0.22 0.19 0.17 0.17 0.19 0.21 0.22 0.24 0.25 0.24 0.25 0.28 0.30 0.30 0.30 0.32 0.29 0.27 0.26 0.28 0.29 0.29 0.31 0.36
0.17 0.22 0.27 0.26 0.23 0.19 0.19 0.18 0.19 0.20 0.34 0.45 0.50 0.59 0.78 0.86 0.66 0.65 0.72 0.67 0.43 0.40 0.49 0.42 0.30 0.26 0.27 0.26 0.25 0.23 0.26 0.28 0.28 0.29 0.27 0.29 0.29 0.31 0.32 0.34 0.35 0.34 0.32 0.31 0.29 0.28 0.31 0.34 0.39
0.10 0.12 0.14 0.12 0.12 0.15 0.12 0.14 0.18 0.21 0.29 0.46 0.57 0.72 1.02 0.97 0.80 0.80 0.85 0.98 0.74 0.59 0.61 0.56 0.43 0.38 0.30 0.26 0.27 0.29 0.32 0.35 0.32 0.30 0.30 0.31 0.30 0.33 0.37 0.38 0.45 0.46 0.48 0.50 0.47 0.41 0.39 0.44 0.49
0.05 0.11 0.10 0.08 0.07 0.09 0.08 0.11 0.17 0.22 0.29 0.36 0.58 0.77 0.80 0.73 0.92 0.99 1.13 1.36 1.32 1.04 0.92 0.78 0.52 0.42 0.40 0.34 0.32 0.41 0.43 0.41 0.42 0.44 0.42 0.53 0.68 0.66 0.77 0.68 0.78 0.75 0.78 0.78 0.79 0.74 0.72 0.74 0.65
0.04 0.07 0.06 0.04 0.04 0.06 0.06 0.08 0.15 0.31 0.47 0.73 0.98 0.95 0.73 0.74 1.05 1.24 1.41 1.68 1.72 1.56 1.36 1.11 0.82 0.64 0.57 0.48 0.52 0.62 0.62 0.73 0.75 0.91 0.95 1.19 1.42 1.35 0.99 1.06 1.29 1.34 1.35 1.29 1.31 1.44 1.29 1.13 1.00
0.02 0.03 0.03 0.04 0.03 0.04 0.04 0.07 0.10 0.23 0.67 1.18 1.42 1.33 1.13 1.00 1.24 1.60 1.91 2.21 2.00 1.71 1.54 1.41 1.19 0.97 0.78 0.80 0.81 0.89 1.03 1.32 1.21 1.14 1.25 1.63 1.52 1.25 1.12 1.25 1.54 1.82 1.81 1.76 1.84 2.00 1.65 1.73 1.95
0.01 0.01 0.01 0.02 0.02 0.02 0.03 0.05 0.14 0.25 0.65 0.92 1.17 1.26 1.29 1.30 1.37 1.59 1.91 2.19 2.39 2.28 2.03 1.81 1.65 1.44 1.37 1.27 1.16 1.06 1.11 1.24 1.25 1.38 1.29 1.62 1.76 1.63 1.58 1.73 1.82 2.02 2.24 2.61 2.48 2.62 2.48 2.39 2.23
0.01 0.01 0.01 0.01 0.02 0.02 0.03 0.08 0.18 0.28 0.55 0.61 0.71 0.86 1.16 1.39 1.71 2.00 2.16 2.51 2.63 2.72 2.50 2.35 2.21 2.12 2.08 1.91 1.71 1.36 1.40 1.37 1.40 1.60 1.59 1.71 1.98 2.07 2.15 2.14 2.08 1.97 2.30 2.71 2.93 2.65 2.93 2.95 2.55
0.01 0.01 0.01 0.01 0.02 0.03 0.04 0.10 0.20 0.34 0.49 0.56 0.64 0.84 1.11 1.45 1.72 2.14 2.44 2.85 2.85 2.89 3.00 3.09 2.96 2.84 2.82 2.60 2.40 2.12 1.91 1.99 1.94 1.95 2.07 2.22 2.42 2.58 2.63 2.49 2.41 2.20 2.21 2.50 2.71 2.70 2.93 2.82 2.67
0.01 0.02 0.05 0.05 0.05 0.06 0.13 0.23 0.38 0.51 0.56 0.75 0.84 1.09 1.26 1.56 1.90 2.01 2.21 2.47 2.79 3.06 3.50 3.75 3.79 3.70 3.66 3.53 3.18 2.80 2.62 2.63 2.76 2.83 2.83 2.76 2.85 3.09 2.97 2.75 2.42 2.30 2.35 2.50 2.47 2.49 2.56 2.42 2.34
0.01 0.04 0.11 0.12 0.08 0.09 0.16 0.45 0.58 0.62 0.73 0.94 0.99 1.23 1.52 1.61 1.95 2.08 2.12 2.33 2.91 3.37 3.91 4.20 4.36 4.58 4.46 4.39 4.04 3.54 3.28 3.17 3.12 3.18 3.17 3.06 3.12 3.01 2.94 2.63 2.25 2.32 2.42 2.41 2.41 2.27 2.33 2.35 2.40
0.04 0.07 0.13 0.20 0.12 0.13 0.20 0.50 0.64 0.67 0.86 1.02 1.17 1.21 1.37 1.59 2.01 2.30 2.43 2.59 3.10 3.68 4.34 4.72 5.19 5.48 5.37 5.07 4.56 4.08 3.94 3.72 3.51 3.46 3.36 3.19 2.98 2.84 2.90 2.57 2.44 2.41 2.42 2.28 2.09 2.34 2.47 2.46 2.48
0.04 0.06 0.13 0.23 0.16 0.15 0.27 0.49 0.71 0.79 0.95 1.12 1.18 1.17 1.31 1.59 1.81 2.17 2.45 2.86 3.32 3.75 4.50 5.11 5.64 5.84 5.59 5.03 4.58 4.40 4.22 3.90 3.64 3.32 3.06 2.78 2.64 2.48 2.63 2.40 2.33 2.45 2.49 2.30 2.31 2.52 2.52 2.26 2.33
0.04 0.06 0.15 0.22 0.15 0.17 0.30 0.48 0.70 0.87 1.02 1.08 1.26 1.26 1.45 1.70 1.85 2.23 2.58 3.02 3.46 3.97 4.68 5.29 5.68 5.65 5.43 5.04 4.63 4.32 3.85 3.54 3.26 2.96 2.73 2.49 2.24 2.14 2.40 2.22 2.44 2.37 2.24 2.07 2.06 2.15 2.15 1.89 2.13
0.05 0.09 0.19 0.22 0.15 0.15 0.31 0.52 0.80 0.89 0.88 0.91 1.13 1.24 1.32 1.51 1.80 2.14 2.65 2.94 3.27 3.75 4.27 4.73 4.71 4.38 4.22 4.14 4.03 3.75 3.78 3.64 3.48 3.23 2.98 2.58 2.41 2.25 2.09 2.20 2.07 2.03 2.09 1.90 1.80 1.94 1.94 1.69 1.97
0.06 0.08 0.15 0.21 0.23 0.24 0.34 0.68 0.92 0.95 0.86 0.82 0.86 0.98 1.11 1.25 1.44 1.77 2.33 2.62 2.79 3.20 3.54 3.61 3.49 3.30 3.32 3.32 3.26 3.30 3.54 3.58 3.50 3.34 3.08 2.79 2.64 2.50 2.33 2.16 1.99 1.93 1.79 1.80 1.79 1.84 1.84 1.75 1.74
0.09 0.06 0.07 0.10 0.20 0.42 0.48 0.85 1.13 1.23 1.15 0.94 0.85 0.96 1.04 1.14 1.20 1.48 1.81 2.02 2.25 2.44 2.60 2.61 2.68 2.69 2.68 2.70 2.66 2.57 2.61 2.75 2.96 3.20 3.24 3.19 2.98 2.73 2.45 2.24 2.03 1.83 1.67 1.79 1.54 1.61 1.82 1.88 1.63
0.06 0.05 0.06 0.10 0.15 0.30 0.42 0.67 1.09 1.35 1.50 1.17 0.95 0.88 0.83 0.97 1.22 1.42 1.51 1.63 1.72 1.75 1.88 1.94 2.21 2.51 2.60 2.63 2.72 2.60 2.32 2.27 2.32 2.46 2.61 2.63 2.62 2.50 2.20 2.09 2.03 1.84 1.65 1.61 1.57 1.73 1.73 1.69 1.60
0.07 0.10 0.16 0.24 0.37 0.60 0.58 0.63 1.00 1.22 1.35 1.10 0.91 0.86 0.74 0.75 0.93 1.15 1.38 1.42 1.38 1.37 1.53 1.73 2.02 2.40 2.61 2.65 2.61 2.54 2.44 2.38 2.27 2.23 2.27 2.16 2.15 2.12 2.01 1.93 1.93 1.79 1.65 1.61 1.57 1.66 1.72 1.75 1.77
0.08 0.16 0.48 0.82 1.15 1.19 0.69 0.68 0.92 0.96 0.90 0.91 0.77 0.72 0.76 0.69 0.69 0.70 0.87 1.09 1.06 1.03 1.17 1.45 1.66 1.92 2.12 2.21 2.22 2.12 2.21 2.32 2.19 2.06 1.96 1.87 1.74 1.69 1.71 1.78 1.85 1.70 1.63 1.69 1.79 1.74 1.66 1.73 1.81
0.08 0.12 0.36 0.60 0.77 0.89 0.73 1.08 1.21 0.89 0.75 0.65 0.54 0.51 0.57 0.53 0.50 0.48 0.53 0.67 0.88 0.88 0.92 1.04 1.30 1.47 1.64 1.74 1.87 1.95 2.10 2.22 2.16 2.30 2.09 1.93 1.66 1.54 1.59 1.75 1.82 1.73 1.64 1.59 1.82 1.80 1.79 1.85 1.83
0.09 0.08 0.13 0.21 0.35 0.60 0.86 1.10 1.08 0.87 0.83 0.63 0.45 0.40 0.41 0.40 0.39 0.40 0.47 0.65 0.66 0.63 0.67 0.78 1.00 1.14 1.30 1.49 1.67 1.74 1.71 1.72 1.84 2.01 2.00 1.86 1.79 1.63 1.71 1.76 1.90 1.94 1.96 1.94 2.02 1.94 1.96 2.11 2.09
0.10 0.09 0.10 0.16 0.29 0.47 0.77 1.13 1.20 1.06 0.93 0.75 0.64 0.47 0.38 0.38 0.38 0.38 0.41 0.48 0.48 0.46 0.57 0.78 0.94 0.96 1.22 1.53 1.70 1.60 1.57 1.47 1.60 1.66 1.70 1.77 1.74 1.75 1.78 1.78 1.82 1.91 1.99 2.01 2.10 2.06 2.13 2.31 2.32
0.14 0.11 0.11 0.14 0.17 0.31 0.66 0.87 0.77 0.82 0.76 0.68 0.61 0.51 0.45 0.42 0.42 0.43 0.42 0.42 0.52 0.45 0.51 0.66 0.80 0.95 1.22 1.53 1.72 1.69 1.54 1.53 1.62 1.54 1.53 1.67 1.73 1.72 1.76 1.76 1.72 1.70 1.80 1.97 2.11 2.09 2.24 2.36 2.41
0.14 0.14 0.14 0.20 0.19 0.22 0.36 0.58 0.46 0.55 0.66 0.62 0.47 0.39 0.38 0.32 0.35 0.33 0.30 0.33 0.32 0.32 0.43 0.74 1.08 1.43 1.58 1.81 2.02 2.01 1.72 1.56 1.48 1.35 1.36 1.57 1.76 1.79 1.75 1.72 1.69 1.63 1.70 1.93 2.08 2.20 2.45 2.56 2.48

GEFSSGP_prec_meanprecacc_204.txt.gz
Total_Precipitation_Accumulation
0.05 0.11 0.32 0.58 1.09 1.54 1.28 0.65 0.49 0.35 0.32 0.44 0.42 0.32 0.34 0.44 0.62 0.97 0.52 0.39 0.20 0.10 0.11 0.20 0.25 0.21 0.24 0.26 0.27 0.29 0.28 0.28 0.28 0.28 0.29 0.33 0.35 0.33 0.33 0.35 0.37 0.40 0.43 0.44 0.44 0.41 0.36 0.33 0.33
0.07 0.17 0.39 0.78 1.47 1.77 1.11 0.50 0.37 0.30 0.36 0.43 0.35 0.28 0.32 0.30 0.27 0.25 0.31 0.39 0.18 0.08 0.09 0.10 0.18 0.19 0.18 0.22 0.25 0.27 0.26 0.26 0.28 0.29 0.29 0.31 0.33 0.35 0.35 0.36 0.36 0.40 0.41 0.36 0.36 0.34 0.29 0.27 0.27
0.11 0.19 0.48 0.84 1.11 1.18 0.62 0.30 0.27 0.27 0.38 0.41 0.33 0.29 0.33 0.37 0.34 0.29 0.23 0.23 0.14 0.08 0.09 0.11 0.15 0.15 0.15 0.17 0.21 0.24 0.23 0.24 0.26 0.26 0.27 0.30 0.32 0.36 0.37 0.38 0.38 0.38 0.36 0.33 0.36 0.33 0.29 0.26 0.27
0.14 0.26 0.47 0.66 0.73 0.60 0.35 0.24 0.23 0.27 0.38 0.33 0.29 0.38 0.43 0.48 0.31 0.26 0.21 0.16 0.12 0.10 0.10 0.12 0.15 0.14 0.14 0.16 0.18 0.21 0.24 0.26 0.26 0.24 0.26 0.28 0.34 0.36 0.34 0.35 0.36 0.35 0.32 0.32 0.31 0.28 0.28 0.27 0.29
0.16 0.35 0.55 0.63 0.54 0.36 0.27 0.24 0.25 0.25 0.24 0.31 0.35 0.54 0.60 0.56 0.34 0.39 0.38 0.24 0.11 0.11 0.13 0.15 0.17 0.15 0.15 0.17 0.18 0.20 0.21 0.24 0.25 0.23 0.25 0.28 0.33 0.33 0.32 0.32 0.33 0.31 0.27 0.28 0.31 0.31 0.27 0.30 0.33
0.20 0.33 0.42 0.46 0.35 0.23 0.25 0.24 0.21 0.21 0.26 0.36 0.46 0.48 0.64 0.59 0.47 0.64 0.57 0.41 0.22 0.17 0.20 0.23 0.25 0.22 0.20 0.19 0.19 0.20 0.22 0.23 0.25 0.26 0.26 0.27 0.30 0.32 0.32 0.32 0.34 0.31 0.28 0.27 0.30 0.31 0.30 0.33 0.37
0.18 0.23 0.27 0.26 0.23 0.19 0.19 0.18 0.19 0.20 0.34 0.45 0.50 0.59 0.78 0.87 0.66 0.65 0.72 0.67 0.43 0.40 0.49 0.42 0.31 0.27 0.28 0.27 0.26 0.24 0.27 0.29 0.29 0.30 0.28 0.30 0.31 0.33 0.33 0.35 0.36 0.35 0.33 0.32 0.30 0.29 0.31 0.35 0.40
0.10 0.12 0.14 0.13 0.13 0.15 0.12 0.14 0.18 0.21 0.29 0.46 0.57 0.72 1.02 0.97 0.80 0.80 0.85 0.98 0.74 0.60 0.61 0.57 0.44 0.41 0.33 0.28 0.28 0.31 0.34 0.36 0.33 0.30 0.31 0.33 0.33 0.36 0.39 0.39 0.47 0.47 0.49 0.51 0.48 0.41 0.39 0.44 0.49
0.05 0.11 0.10 0.08 0.07 0.09 0.08 0.11 0.17 0.23 0.30 0.36 0.58 0.77 0.80 0.73 0.92 0.99 1.14 1.36 1.32 1.04 0.92 0.79 0.53 0.45 0.44 0.38 0.34 0.43 0.45 0.43 0.45 0.46 0.43 0.58 0.76 0.76 0.85 0.70 0.79 0.76 0.79 0.79 0.80 0.75 0.72 0.74 0.65
0.05 0.08 0.07 0.04 0.04 0.06 0.06 0.08 0.15 0.32 0.49 0.73 0.98 0.95 0.73 0.74 1.05 1.24 1.42 1.69 1.73 1.57 1.37 1.13 0.83 0.64 0.58 0.51 0.55 0.66 0.66 0.77 0.81 0.96 1.01 1.27 1.49 1.43 1.04 1.09 1.30 1.35 1.36 1.30 1.33 1.46 1.32 1.16 1.01
0.03 0.03 0.03 0.04 0.03 0.04 0.04 0.07 0.10 0.23 0.67 1.18 1.42 1.33 1.13 1.00 1.24 1.60 1.91 2.22 2.01 1.72 1.55 1.43 1.21 0.98 0.78 0.82 0.84 0.93 1.08 1.37 1.25 1.17 1.30 1.69 1.55 1.27 1.15 1.29 1.58 1.86 1.84 1.80 1.89 2.04 1.69 1.77 1.97
0.02 0.02 0.01 0.02 0.02 0.02 0.03 0.06 0.14 0.25 0.66 0.93 1.17 1.26 1.30 1.30 1.37 1.59 1.91 2.19 2.39 2.28 2.04 1.82 1.66 1.44 1.38 1.28 1.18 1.09 1.15 1.29 1.30 1.42 1.32 1.66 1.81 1.68 1.63 1.81 1.91 2.11 2.30 2.69 2.55 2.67 2.52 2.43 2.25
0.01 0.01 0.01 0.01 0.02 0.02 0.03 0.08 0.18 0.29 0.55 0.61 0.71 0.86 1.16 1.39 1.72 2.00 2.16 2.51 2.63 2.72 2.51 2.36 2.22 2.12 2.09 1.94 1.74 1.38 1.44 1.42 1.44 1.65 1.65 1.76 2.05 2.14 2.22 2.22 2.18 2.03 2.36 2.78 3.01 2.71 2.99 3.00 2.58
0.01 0.01 0.01 0.01 0.02 0.03 0.04 0.10 0.20 0.34 0.49 0.56 0.64 0.84 1.11 1.45 1.72 2.14 2.44 2.85 2.86 2.89 3.01 3.09 2.97 2.85 2.83 2.63 2.43 2.15 1.94 2.03 1.97 1.98 2.11 2.27 2.50 2.67 2.72 2.58 2.49 2.26 2.27 2.57 2.77 2.74 2.99 2.88 2.71
0.01 0.02 0.05 0.05 0.05 0.07 0.14 0.24 0.38 0.51 0.56 0.75 0.84 1.09 1.26 1.56 1.90 2.01 2.21 2.47 2.79 3.06 3.51 3.76 3.80 3.71 3.67 3.55 3.21 2.83 2.64 2.65 2.79 2.86 2.86 2.79 2.92 3.18 3.07 2.87 2.51 2.37 2.42 2.57 2.53 2.55 2.60 2.46 2.38
0.01 0.04 0.13 0.13 0.08 0.09 0.18 0.48 0.58 0.62 0.73 0.94 0.99 1.23 1.52 1.61 1.95 2.08 2.12 2.33 2.91 3.37 3.92 4.21 4.36 4.59 4.47 4.41 4.07 3.57 3.30 3.20 3.16 3.21 3.20 3.10 3.18 3.08 3.03 2.74 2.35 2.43 2.50 2.48 2.50 2.34 2.39 2.41 2.45
0.04 0.08 0.15 0.21 0.13 0.13 0.21 0.52 0.64 0.67 0.86 1.02 1.17 1.21 1.37 1.59 2.01 2.30 2.43 2.59 3.10 3.69 4.35 4.72 5.19 5.49 5.38 5.10 4.59 4.11 3.97 3.76 3.56 3.51 3.42 3.25 3.04 2.89 2.98 2.68 2.56 2.52 2.51 2.36 2.15 2.44 2.58 2.60 2.60
0.05 0.07 0.15 0.25 0.16 0.15 0.28 0.50 0.71 0.79 0.95 1.12 1.18 1.17 1.31 1.59 1.81 2.17 2.45 2.86 3.32 3.75 4.50 5.12 5.67 5.87 5.62 5.07 4.63 4.45 4.26 3.94 3.68 3.39 3.14 2.84 2.70 2.54 2.71 2.48 2.43 2.54 2.60 2.40 2.40 2.65 2.66 2.40 2.45
0.05 0.07 0.17 0.24 0.15 0.17 0.31 0.49 0.70 0.87 1.02 1.08 1.26 1.26 1.45 1.70 1.85 2.23 2.58 3.02 3.46 3.97 4.70 5.31 5.71 5.68 5.46 5.08 4.69 4.39 3.91 3.61 3.33 3.04 2.81 2.55 2.29 2.20 2.48 2.27 2.53 2.45 2.32 2.16 2.16 2.27 2.30 2.03 2.26
0.06 0.10 0.21 0.24 0.15 0.16 0.31 0.54 0.80 0.90 0.88 0.91 1.13 1.25 1.32 1.51 1.80 2.14 2.65 2.94 3.27 3.78 4.29 4.74 4.72 4.39 4.25 4.19 4.11 3.85 3.85 3.71 3.55 3.29 3.05 2.64 2.46 2.31 2.15 2.28 2.14 2.10 2.18 1.99 1.90 2.08 2.08 1.83 2.14
0.06 0.09 0.15 0.21 0.23 0.24 0.34 0.68 0.94 0.98 0.87 0.82 0.86 0.98 1.11 1.25 1.44 1.78 2.33 2.62 2.79 3.22 3.56 3.62 3.49 3.31 3.34 3.38 3.36 3.44 3.65 3.65 3.57 3.41 3.13 2.83 2.67 2.55 2.41 2.27 2.07 2.00 1.86 1.90 1.92 1.97 1.98 1.88 1.89
0.09 0.07 0.08 0.11 0.20 0.42 0.48 0.86 1.16 1.26 1.17 0.95 0.85 0.96 1.04 1.14 1.20 1.48 1.81 2.02 2.25 2.44 2.61 2.62 2.69 2.71 2.72 2.74 2.72 2.65 2.69 2.85 3.06 3.28 3.30 3.24 3.02 2.77 2.49 2.29 2.09 1.90 1.75 1.89 1.63 1.72 1.97 2.02 1.77
0.06 0.05 0.06 0.10 0.15 0.30 0.42 0.67 1.12 1.39 1.53 1.19 0.95 0.88 0.83 0.97 1.22 1.42 1.51 1.63 1.72 1.75 1.88 1.94 2.23 2.55 2.64 2.66 2.75 2.67 2.40 2.37 2.41 2.56 2.70 2.70 2.69 2.54 2.24 2.13 2.09 1.91 1.74 1.72 1.68 1.90 1.89 1.85 1.76
0.07 0.10 0.16 0.24 0.37 0.61 0.59 0.64 1.02 1.27 1.38 1.11 0.93 0.87 0.74 0.76 0.94 1.15 1.38 1.43 1.38 1.37 1.53 1.74 2.05 2.43 2.63 2.67 2.64 2.61 2.51 2.47 2.37 2.34 2.36 2.25 2.23 2.19 2.05 1.98 2.00 1.86 1.74 1.71 1.68 1.78 1.84 1.90 1.94
0.08 0.16 0.48 0.83 1.16 1.20 0.70 0.68 0.93 0.97 0.90 0.91 0.78 0.73 0.77 0.70 0.69 0.70 0.88 1.10 1.07 1.04 1.18 1.46 1.67 1.94 2.15 2.24 2.26 2.18 2.29 2.40 2.27 2.13 2.03 1.94 1.81 1.74 1.76 1.84 1.92 1.78 1.71 1.77 1.87 1.82 1.76 1.84 1.94
0.08 0.12 0.36 0.61 0.79 0.92 0.74 1.08 1.21 0.90 0.75 0.65 0.54 0.51 0.58 0.54 0.50 0.48 0.55 0.69 0.90 0.90 0.93 1.05 1.31 1.50 1.68 1.78 1.90 2.00 2.17 2.28 2.22 2.36 2.15 1.99 1.70 1.58 1.63 1.82 1.88 1.79 1.70 1.66 1.91 1.90 1.90 1.96 1.94
0.09 0.08 0.13 0.22 0.35 0.61 0.87 1.11 1.09 0.87 0.83 0.63 0.45 0.40 0.41 0.40 0.39 0.40 0.48 0.66 0.67 0.66 0.70 0.80 1.03 1.18 1.35 1.53 1.70 1.77 1.74 1.76 1.89 2.06 2.07 1.92 1.83 1.66 1.74 1.80 1.94 1.98 2.02 2.02 2.13 2.06 2.06 2.21 2.18
0.10 0.09 0.10 0.16 0.29 0.47 0.78 1.13 1.20 1.06 0.93 0.75 0.64 0.47 0.38 0.38 0.38 0.38 0.42 0.49 0.49 0.48 0.60 0.81 0.97 0.99 1.24 1.55 1.73 1.62 1.60 1.50 1.64 1.72 1.77 1.83 1.78 1.78 1.80 1.80 1.85 1.95 2.03 2.08 2.19 2.17 2.23 2.40 2.41
0.14 0.11 0.11 0.14 0.17 0.31 0.67 0.88 0.78 0.83 0.77 0.68 0.61 0.52 0.46 0.42 0.42 0.43 0.42 0.42 0.52 0.47 0.55 0.70 0.82 0.96 1.24 1.56 1.75 1.73 1.58 1.57 1.68 1.61 1.59 1.72 1.76 1.75 1.79 1.78 1.75 1.73 1.85 2.02 2.19 2.18 2.33 2.45 2.50
0.14 0.14 0.14 0.20 0.19 0.22 0.37 0.59 0.47 0.57 0.67 0.63 0.48 0.41 0.38 0.32 0.35 0.34 0.31 0.35 0.35 0.35 0.47 0.77 1.09 1.44 1.59 1.83 2.05 2.05 1.76 1.60 1.53 1.40 1.42 1.62 1.81 1.83 1.80 1.76 1.73 1.67 1.75 1.99 2.16 2.29 2.55 2.67 2.58

GEFSSGP_prec_meanprecacc_210.txt.gz
Total_Precipitation_Accumulation
0.06 0.13 0.35 0.61 1.12 1.56 1.29 0.66 0.49 0.35 0.33 0.44 0.42 0.32 0.34 0.45 0.62 0.99 0.59 0.46 0.22 0.11 0.12 0.22 0.27 0.23 0.27 0.29 0.30 0.32 0.32 0.32 0.33 0.34 0.37 0.43 0.42 0.38 0.38 0.41 0.46 0.53 0.60 0.61 0.60 0.52 0.42 0.38 0.38
0.09 0.20 0.42 0.81 1.50 1.79 1.12 0.50 0.37 0.30 0.37 0.44 0.35 0.28 0.32 0.30 0.27 0.27 0.37 0.43 0.18 0.08 0.09 0.11 0.20 0.20 0.20 0.24 0.28 0.31 0.28 0.28 0.30 0.33 0.33 0.37 0.40 0.40 0.40 0.42 0.48 0.53 0.54 0.47 0.45 0.40 0.32 0.29 0.30
0.13 0.22 0.51 0.88 1.14 1.21 0.63 0.30 0.27 0.27 0.39 0.41 0.34 0.29 0.33 0.37 0.35 0.30 0.26 0.24 0.15 0.08 0.09 0.12 0.16 0.16 0.15 0.18 0.24 0.26 0.25 0.26 0.29 0.30 0.31 0.34 0.36 0.40 0.42 0.46 0.49 0.48 0.44 0.39 0.40 0.37 0.31 0.27 0.29
0.16 0.29 0.50 0.69 0.75 0.61 0.35 0.24 0.23 0.28 0.38 0.33 0.29 0.39 0.44 0.49 0.31 0.27 0.22 0.16 0.12 0.11 0.10 0.12 0.16 0.14 0.14 0.16 0.19 0.23 0.26 0.28 0.28 0.26 0.30 0.32 0.37 0.39 0.38 0.40 0.41 0.40 0.35 0.35 0.34 0.30 0.29 0.28 0.31
0.18 0.39 0.58 0.65 0.55 0.37 0.27 0.24 0.25 0.25 0.24 0.31 0.35 0.54 0.60 0.57 0.34 0.39 0.39 0.25 0.12 0.12 0.13 0.15 0.17 0.15 0.16 0.17 0.19 0.21 0.22 0.26 0.26 0.25 0.27 0.30 0.36 0.35 0.34 0.34 0.35 0.33 0.29 0.30 0.32 0.32 0.28 0.31 0.35
0.21 0.34 0.44 0.47 0.36 0.23 0.25 0.24 0.21 0.21 0.26 0.36 0.46 0.49 0.64 0.59 0.47 0.64 0.58 0.42 0.23 0.17 0.20 0.23 0.25 0.23 0.20 0.19 0.19 0.20 0.23 0.24 0.26 0.27 0.27 0.29 0.32 0.34 0.33 0.33 0.35 0.32 0.29 0.29 0.30 0.32 0.31 0.34 0.39
0.19 0.24 0.28 0.27 0.23 0.20 0.19 0.19 0.19 0.20 0.34 0.45 0.50 0.60 0.79 0.88 0.67 0.66 0.73 0.68 0.44 0.40 0.50 0.43 0.32 0.27 0.28 0.27 0.26 0.25 0.28 0.30 0.31 0.31 0.29 0.31 0.33 0.34 0.34 0.36 0.37 0.36 0.34 0.33 0.31 0.29 0.32 0.36 0.41
0.11 0.13 0.15 0.14 0.13 0.15 0.13 0.15 0.18 0.21 0.29 0.46 0.57 0.72 1.03 0.98 0.81 0.80 0.86 0.99 0.76 0.63 0.64 0.60 0.48 0.42 0.34 0.29 0.29 0.31 0.36 0.38 0.35 0.32 0.33 0.34 0.34 0.37 0.40 0.40 0.48 0.48 0.50 0.52 0.49 0.42 0.39 0.45 0.50
0.06 0.12 0.11 0.10 0.08 0.09 0.08 0.11 0.17 0.23 0.30 0.36 0.59 0.77 0.80 0.73 0.92 0.99 1.14 1.38 1.34 1.06 0.96 0.83 0.55 0.47 0.45 0.39 0.36 0.44 0.47 0.47 0.51 0.50 0.46 0.60 0.78 0.78 0.87 0.72 0.81 0.78 0.82 0.81 0.81 0.76 0.74 0.75 0.66
0.05 0.09 0.08 0.04 0.04 0.06 0.06 0.08 0.16 0.33 0.49 0.74 0.98 0.95 0.74 0.74 1.05 1.24 1.42 1.69 1.74 1.59 1.39 1.14 0.84 0.66 0.60 0.54 0.61 0.68 0.69 0.80 0.85 1.02 1.05 1.30 1.53 1.46 1.07 1.12 1.34 1.38 1.39 1.33 1.35 1.48 1.33 1.17 1.02
0.04 0.04 0.03 0.04 0.04 0.04 0.04 0.07 0.11 0.24 0.68 1.18 1.42 1.33 1.13 1.00 1.25 1.60 1.92 2.22 2.01 1.73 1.56 1.45 1.22 0.99 0.79 0.86 0.88 0.97 1.11 1.41 1.29 1.22 1.35 1.72 1.59 1.31 1.20 1.34 1.62 1.90 1.87 1.82 1.91 2.06 1.71 1.79 1.99
0.02 0.02 0.02 0.02 0.02 0.02 0.03 0.06 0.15 0.26 0.67 0.94 1.17 1.26 1.30 1.30 1.38 1.60 1.92 2.20 2.40 2.29 2.04 1.83 1.68 1.46 1.39 1.30 1.21 1.13 1.20 1.35 1.35 1.52 1.38 1.71 1.85 1.73 1.69 1.89 1.96 2.16 2.34 2.73 2.58 2.70 2.56 2.45 2.27
0.02 0.02 0.01 0.01 0.02 0.02 0.03 0.08 0.18 0.29 0.55 0.62 0.71 0.87 1.16 1.39 1.72 2.01 2.17 2.51 2.63 2.73 2.52 2.37 2.22 2.13 2.10 1.95 1.76 1.40 1.47 1.46 1.49 1.71 1.73 1.82 2.08 2.19 2.28 2.28 2.22 2.07 2.40 2.83 3.06 2.76 3.03 3.02 2.61
0.01 0.01 0.01 0.02 0.03 0.04 0.05 0.10 0.20 0.34 0.49 0.56 0.64 0.85 1.12 1.46 1.74 2.15 2.45 2.85 2.86 2.90 3.01 3.10 2.97 2.85 2.84 2.64 2.45 2.17 1.96 2.06 1.99 2.01 2.15 2.32 2.54 2.71 2.76 2.61 2.52 2.29 2.30 2.60 2.82 2.79 3.04 2.91 2.75
0.01 0.02 0.06 0.06 0.06 0.07 0.15 0.25 0.39 0.52 0.56 0.75 0.84 1.09 1.27 1.58 1.95 2.04 2.22 2.48 2.79 3.06 3.51 3.76 3.80 3.72 3.68 3.56 3.23 2.85 2.67 2.67 2.81 2.88 2.89 2.83 2.95 3.20 3.09 2.88 2.54 2.41 2.46 2.62 2.57 2.59 2.65 2.51 2.44
0.02 0.05 0.14 0.14 0.09 0.11 0.19 0.49 0.59 0.63 0.73 0.94 0.99 1.23 1.53 1.61 1.96 2.10 2.13 2.34 2.91 3.38 3.93 4.22 4.37 4.61 4.48 4.43 4.10 3.60 3.34 3.23 3.20 3.25 3.25 3.16 3.22 3.10 3.06 2.77 2.37 2.46 2.53 2.52 2.54 2.39 2.44 2.47 2.52
0.05 0.09 0.17 0.23 0.14 0.15 0.22 0.53 0.66 0.68 0.87 1.02 1.18 1.21 1.37 1.59 2.02 2.31 2.45 2.60 3.11 3.70 4.36 4.73 5.22 5.53 5.41 5.12 4.62 4.14 4.00 3.80 3.59 3.55 3.47 3.32 3.10 2.94 3.02 2.72 2.60 2.56 2.55 2.40 2.19 2.50 2.64 2.65 2.65
0.08 0.10 0.17 0.27 0.18 0.17 0.30 0.51 0.72 0.81 0.96 1.14 1.18 1.17 1.31 1.60 1.82 2.18 2.49 2.90 3.33 3.76 4.51 5.13 5.70 5.91 5.65 5.11 4.67 4.49 4.30 3.97 3.72 3.43 3.19 2.93 2.81 2.62 2.76 2.53 2.50 2.62 2.66 2.44 2.45 2.70 2.72 2.44 2.49
0.06 0.09 0.18 0.25 0.16 0.19 0.33 0.51 0.72 0.90 1.05 1.11 1.28 1.27 1.45 1.71 1.86 2.24 2.60 3.04 3.48 3.99 4.73 5.34 5.75 5.72 5.51 5.12 4.73 4.42 3.95 3.65 3.38 3.09 2.88 2.65 2.37 2.26 2.54 2.34 2.60 2.51 2.36 2.19 2.19 2.30 2.33 2.07 2.30
0.07 0.11 0.23 0.25 0.16 0.17 0.33 0.55 0.83 0.93 0.90 0.93 1.15 1.26 1.33 1.52 1.81 2.16 2.66 2.95 3.29 3.81 4.36 4.78 4.76 4.42 4.29 4.26 4.15 3.87 3.88 3.74 3.60 3.34 3.10 2.69 2.50 2.35 2.19 2.32 2.19 2.15 2.22 2.03 1.93 2.12 2.12 1.89 2.21
0.07 0.09 0.16 0.21 0.23 0.25 0.35 0.70 0.99 1.03 0.90 0.84 0.87 1.00 1.12 1.26 1.46 1.79 2.34 2.64 2.82 3.25 3.59 3.64 3.51 3.34 3.38 3.43 3.39 3.47 3.68 3.69 3.62 3.46 3.16 2.85 2.69 2.58 2.43 2.31 2.12 2.05 1.91 1.93 1.95 2.02 2.04 1.95 1.95
0.09 0.07 0.08 0.11 0.20 0.43 0.49 0.89 1.19 1.29 1.20 0.97 0.88 0.99 1.06 1.17 1.22 1.50 1.84 2.05 2.30 2.49 2.64 2.64 2.71 2.74 2.75 2.77 2.76 2.68 2.71 2.89 3.10 3.32 3.34 3.27 3.04 2.79 2.52 2.32 2.13 1.94 1.79 1.93 1.66 1.75 2.01 2.07 1.81
0.06 0.05 0.07 0.11 0.16 0.31 0.43 0.70 1.14 1.41 1.56 1.23 0.98 0.90 0.86 1.00 1.25 1.44 1.53 1.67 1.76 1.78 1.90 1.96 2.25 2.57 2.66 2.69 2.78 2.69 2.43 2.41 2.47 2.61 2.75 2.74 2.72 2.56 2.26 2.16 2.11 1.94 1.77 1.75 1.71 1.94 1.94 1.90 1.81
0.07 0.11 0.17 0.26 0.38 0.62 0.59 0.65 1.04 1.29 1.43 1.15 0.96 0.89 0.77 0.78 0.96 1.17 1.41 1.47 1.41 1.39 1.56 1.76 2.06 2.45 2.66 2.69 2.66 2.63 2.54 2.50 2.41 2.39 2.42 2.30 2.29 2.23 2.09 2.01 2.04 1.89 1.76 1.73 1.71 1.83 1.89 1.96 2.01
0.08 0.16 0.50 0.85 1.17 1.21 0.71 0.69 0.93 0.98 0.92 0.93 0.81 0.75 0.80 0.73 0.72 0.73 0.91 1.14 1.10 1.06 1.21 1.48 1.68 1.97 2.18 2.27 2.27 2.21 2.32 2.42 2.30 2.15 2.07 1.99 1.86 1.78 1.80 1.88 1.95 1.80 1.73 1.79 1.91 1.87 1.82 1.91 2.01
0.08 0.12 0.36 0.63 0.81 0.93 0.75 1.10 1.24 0.92 0.77 0.68 0.57 0.54 0.60 0.57 0.52 0.50 0.57 0.71 0.92 0.92 0.96 1.09 1.33 1.51 1.70 1.80 1.92 2.03 2.20 2.29 2.24 2.38 2.19 2.03 1.74 1.62 1.67 1.85 1.91 1.81 1.73 1.70 1.97 1.97 1.96 2.03 2.01
0.09 0.08 0.13 0.22 0.36 0.63 0.88 1.12 1.11 0.94 0.89 0.70 0.52 0.44 0.44 0.42 0.40 0.41 0.49 0.67 0.68 0.67 0.72 0.84 1.05 1.20 1.37 1.54 1.72 1.79 1.76 1.78 1.91 2.10 2.12 1.97 1.87 1.69 1.76 1.82 1.97 2.02 2.05 2.06 2.18 2.10 2.10 2.25 2.23
0.10 0.09 0.11 0.16 0.30 0.48 0.80 1.16 1.23 1.14 1.01 0.85 0.73 0.53 0.41 0.40 0.38 0.39 0.43 0.50 0.50 0.49 0.63 0.85 1.00 1.01 1.25 1.56 1.74 1.65 1.62 1.53 1.67 1.76 1.81 1.86 1.81 1.80 1.83 1.83 1.89 1.98 2.06 2.10 2.23 2.21 2.28 2.45 2.47
0.14 0.12 0.11 0.14 0.17 0.31 0.68 0.90 0.80 0.88 0.85 0.81 0.69 0.58 0.49 0.44 0.44 0.44 0.43 0.43 0.54 0.49 0.58 0.73 0.84 0.97 1.24 1.56 1.76 1.75 1.60 1.59 1.71 1.64 1.62 1.75 1.79 1.78 1.82 1.82 1.78 1.75 1.87 2.07 2.25 2.25 2.39 2.51 2.56
0.15 0.14 0.14 0.20 0.19 0.22 0.37 0.61 0.49 0.59 0.71 0.72 0.53 0.46 0.44 0.35 0.37 0.35 0.32 0.37 0.37 0.37 0.50 0.79 1.10 1.44 1.59 1.84 2.07 2.06 1.78 1.61 1.54 1.42 1.44 1.64 1.83 1.85 1.82 1.79 1.76 1.71 1.79 2.05 2.23 2.34 2.60 2.73 2.63

GEFSSGP_prec_meanprecacc_216.txt.gz
Total_Precipitation_Accumulation
0.06 0.13 0.36 0.62 1.12 1.56 1.29 0.67 0.49 0.35 0.33 0.45 0.43 0.32 0.34 0.45 0.62 0.99 0.60 0.48 0.25 0.15 0.15 0.26 0.31 0.26 0.30 0.32 0.34 0.39 0.40 0.39 0.39 0.41 0.43 0.49 0.49 0.46 0.50 0.59 0.66 0.76 0.86 0.82 0.77 0.62 0.50 0.45 0.42
0.10 0.20 0.43 0.81 1.50 1.79 1.13 0.51 0.37 0.30 0.37 0.44 0.35 0.28 0.32 0.31 0.27 0.27 0.38 0.45 0.20 0.10 0.10 0.12 0.23 0.23 0.22 0.27 0.31 0.34 0.33 0.34 0.37 0.39 0.39 0.42 0.45 0.47 0.50 0.57 0.63 0.71 0.69 0.59 0.57 0.49 0.38 0.33 0.34
0.14 0.23 0.51 0.88 1.14 1.21 0.64 0.31 0.27 0.27 0.39 0.41 0.34 0.29 0.33 0.37 0.35 0.31 0.27 0.25 0.15 0.09 0.10 0.13 0.18 0.17 0.17 0.20 0.26 0.29 0.28 0.30 0.33 0.34 0.36 0.39 0.41 0.49 0.55 0.61 0.63 0.60 0.53 0.48 0.49 0.43 0.36 0.30 0.32
0.17 0.30 0.50 0.69 0.75 0.61 0.36 0.24 0.24 0.28 0.39 0.33 0.29 0.39 0.44 0.49 0.31 0.27 0.23 0.17 0.13 0.11 0.11 0.14 0.17 0.16 0.15 0.17 0.21 0.24 0.27 0.30 0.30 0.29 0.35 0.38 0.46 0.48 0.50 0.52 0.52 0.50 0.44 0.41 0.38 0.35 0.33 0.31 0.33
0.18 0.39 0.58 0.65 0.55 0.37 0.27 0.24 0.25 0.25 0.24 0.31 0.35 0.54 0.61 0.58 0.35 0.39 0.39 0.25 0.13 0.12 0.14 0.16 0.18 0.16 0.16 0.18 0.19 0.22 0.24 0.28 0.29 0.28 0.31 0.35 0.42 0.42 0.42 0.41 0.41 0.39 0.34 0.34 0.37 0.37 0.32 0.34 0.37
0.21 0.34 0.44 0.47 0.36 0.23 0.26 0.24 0.21 0.21 0.26 0.36 0.46 0.49 0.66 0.62 0.47 0.64 0.58 0.42 0.23 0.18 0.20 0.24 0.26 0.24 0.21 0.19 0.19 0.21 0.24 0.26 0.29 0.31 0.30 0.32 0.36 0.39 0.38 0.37 0.39 0.36 0.33 0.33 0.35 0.37 0.35 0.37 0.42
0.19 0.24 0.28 0.28 0.24 0.21 0.20 0.19 0.19 0.20 0.34 0.46 0.50 0.60 0.82 0.91 0.68 0.66 0.73 0.68 0.44 0.41 0.50 0.44 0.33 0.28 0.29 0.28 0.27 0.25 0.29 0.31 0.33 0.33 0.32 0.35 0.37 0.39 0.38 0.40 0.40 0.39 0.37 0.36 0.34 0.33 0.36 0.40 0.45
0.11 0.14 0.15 0.14 0.13 0.16 0.13 0.15 0.18 0.21 0.29 0.46 0.57 0.72 1.04 0.99 0.81 0.81 0.87 1.00 0.77 0.63 0.64 0.60 0.48 0.43 0.35 0.30 0.31 0.33 0.37 0.39 0.37 0.34 0.35 0.37 0.37 0.40 0.43 0.43 0.51 0.51 0.53 0.55 0.52 0.45 0.43 0.48 0.55
0.07 0.13 0.12 0.10 0.08 0.09 0.08 0.11 0.17 0.23 0.30 0.36 0.59 0.77 0.80 0.73 0.93 1.00 1.15 1.38 1.35 1.07 0.97 0.83 0.55 0.47 0.45 0.40 0.37 0.46 0.48 0.49 0.54 0.53 0.49 0.63 0.79 0.79 0.88 0.74 0.84 0.83 0.86 0.85 0.85 0.80 0.78 0.79 0.69
0.06 0.10 0.08 0.05 0.05 0.06 0.06 0.08 0.16 0.33 0.49 0.74 0.98 0.95 0.74 0.74 1.05 1.24 1.42 1.70 1.75 1.59 1.40 1.16 0.85 0.67 0.61 0.55 0.62 0.69 0.70 0.82 0.87 1.03 1.06 1.31 1.54 1.47 1.08 1.14 1.38 1.43 1.43 1.36 1.40 1.53 1.37 1.20 1.03
0.04 0.04 0.04 0.04 0.04 0.04 0.04 0.07 0.11 0.24 0.68 1.18 1.42 1.33 1.13 1.00 1.25 1.60 1.92 2.23 2.02 1.74 1.58 1.47 1.24 1.01 0.82 0.87 0.91 0.98 1.13 1.43 1.31 1.24 1.37 1.74 1.60 1.33 1.21 1.36 1.65 1.93 1.90 1.85 1.94 2.09 1.74 1.80 1.99
0.02 0.02 0.02 0.02 0.02 0.02 0.03 0.06 0.15 0.26 0.67 0.94 1.17 1.26 1.30 1.30 1.38 1.60 1.92 2.20 2.41 2.30 2.06 1.85 1.70 1.48 1.42 1.33 1.23 1.16 1.23 1.38 1.38 1.55 1.43 1.75 1.87 1.74 1.71 1.92 1.99 2.18 2.36 2.75 2.59 2.72 2.58 2.46 2.28
0.02 0.02 0.01 0.01 0.02 0.02 0.03 0.08 0.18 0.29 0.55 0.62 0.71 0.87 1.16 1.39 1.72 2.02 2.18 2.52 2.64 2.74 2.53 2.38 2.25 2.16 2.13 1.97 1.79 1.43 1.49 1.49 1.53 1.75 1.78 1.88 2.12 2.21 2.31 2.30 2.25 2.09 2.42 2.84 3.07 2.78 3.06 3.05 2.62
0.02 0.01 0.01 0.02 0.03 0.04 0.05 0.10 0.21 0.34 0.49 0.56 0.64 0.85 1.12 1.46 1.74 2.17 2.47 2.86 2.87 2.91 3.03 3.12 2.99 2.88 2.86 2.66 2.47 2.18 1.98 2.08 2.02 2.05 2.20 2.37 2.58 2.75 2.81 2.65 2.55 2.31 2.32 2.62 2.83 2.81 3.06 2.94 2.77
0.01 0.02 0.06 0.06 0.06 0.08 0.15 0.25 0.39 0.52 0.57 0.75 0.84 1.09 1.27 1.59 1.96 2.05 2.23 2.49 2.80 3.07 3.52 3.78 3.83 3.74 3.70 3.58 3.24 2.86 2.68 2.70 2.85 2.94 2.97 2.91 3.01 3.26 3.14 2.94 2.58 2.44 2.49 2.66 2.61 2.62 2.68 2.55 2.48
0.02 0.05 0.14 0.14 0.10 0.11 0.19 0.49 0.60 0.63 0.74 0.95 1.00 1.24 1.54 1.62 1.97 2.10 2.14 2.34 2.92 3.39 3.94 4.24 4.40 4.62 4.50 4.44 4.11 3.61 3.37 3.27 3.23 3.29 3.32 3.24 3.29 3.17 3.12 2.83 2.43 2.50 2.57 2.57 2.59 2.45 2.50 2.52 2.57
0.05 0.10 0.17 0.23 0.15 0.16 0.23 0.53 0.66 0.69 0.88 1.04 1.19 1.23 1.39 1.61 2.03 2.32 2.46 2.61 3.12 3.71 4.37 4.76 5.25 5.55 5.43 5.14 4.64 4.17 4.02 3.82 3.62 3.59 3.51 3.39 3.17 3.00 3.09 2.78 2.66 2.60 2.59 2.42 2.21 2.54 2.69 2.70 2.69
0.08 0.10 0.17 0.27 0.18 0.17 0.30 0.52 0.73 0.83 0.99 1.15 1.19 1.18 1.32 1.62 1.84 2.19 2.50 2.91 3.34 3.77 4.52 5.15 5.72 5.93 5.68 5.14 4.70 4.51 4.31 4.00 3.76 3.48 3.25 3.00 2.89 2.69 2.83 2.59 2.56 2.68 2.71 2.48 2.48 2.74 2.75 2.48 2.53
0.06 0.09 0.18 0.25 0.16 0.19 0.33 0.52 0.73 0.91 1.06 1.13 1.29 1.28 1.46 1.73 1.88 2.25 2.61 3.05 3.49 4.00 4.74 5.36 5.77 5.74 5.54 5.16 4.77 4.46 3.98 3.68 3.43 3.14 2.92 2.69 2.43 2.32 2.61 2.40 2.66 2.56 2.42 2.25 2.23 2.32 2.35 2.09 2.34
0.07 0.11 0.23 0.25 0.16 0.17 0.33 0.56 0.84 0.94 0.91 0.94 1.16 1.27 1.34 1.54 1.83 2.18 2.68 2.97 3.31 3.83 4.39 4.80 4.78 4.45 4.32 4.30 4.18 3.90 3.92 3.77 3.64 3.37 3.15 2.75 2.57 2.42 2.26 2.42 2.26 2.20 2.26 2.08 1.98 2.16 2.16 1.92 2.26
0.07 0.10 0.16 0.21 0.23 0.25 0.36 0.71 0.99 1.03 0.90 0.85 0.88 1.00 1.13 1.28 1.48 1.82 2.36 2.67 2.84 3.30 3.64 3.67 3.55 3.38 3.41 3.46 3.42 3.50 3.70 3.71 3.65 3.49 3.20 2.91 2.76 2.64 2.50 2.39 2.18 2.09 1.93 1.96 1.98 2.05 2.08 1.98 1.99
0.10 0.07 0.08 0.11 0.21 0.43 0.49 0.89 1.20 1.29 1.20 0.98 0.88 0.99 1.07 1.18 1.24 1.53 1.85 2.08 2.33 2.53 2.67 2.67 2.74 2.76 2.77 2.81 2.80 2.70 2.74 2.92 3.13 3.33 3.36 3.30 3.08 2.84 2.58 2.40 2.16 1.96 1.82 1.95 1.68 1.78 2.04 2.10 1.85
0.07 0.06 0.07 0.11 0.16 0.31 0.43 0.70 1.14 1.41 1.56 1.23 0.99 0.90 0.86 1.02 1.27 1.45 1.55 1.71 1.80 1.82 1.93 1.99 2.28 2.59 2.69 2.73 2.82 2.72 2.45 2.44 2.49 2.63 2.76 2.76 2.76 2.61 2.32 2.21 2.13 1.95 1.79 1.78 1.74 1.96 1.97 1.93 1.84
0.07 0.11 0.17 0.26 0.38 0.62 0.59 0.65 1.04 1.29 1.43 1.15 0.96 0.89 0.77 0.79 0.97 1.19 1.43 1.51 1.45 1.43 1.59 1.79 2.09 2.47 2.68 2.72 2.68 2.65 2.55 2.51 2.42 2.41 2.45 2.32 2.31 2.25 2.11 2.03 2.05 1.90 1.77 1.75 1.75 1.86 1.93 2.00 2.05
0.09 0.16 0.50 0.86 1.18 1.21 0.71 0.69 0.94 0.98 0.92 0.93 0.81 0.76 0.80 0.74 0.73 0.74 0.92 1.16 1.12 1.09 1.23 1.50 1.70 1.98 2.19 2.29 2.29 2.22 2.33 2.42 2.30 2.17 2.09 2.01 1.87 1.79 1.81 1.89 1.97 1.81 1.75 1.82 1.94 1.90 1.86 1.96 2.04
0.08 0.12 0.37 0.63 0.81 0.93 0.75 1.10 1.24 0.92 0.77 0.68 0.57 0.54 0.61 0.58 0.53 0.51 0.58 0.72 0.93 0.94 0.98 1.10 1.34 1.53 1.72 1.81 1.93 2.03 2.20 2.30 2.25 2.40 2.21 2.04 1.75 1.62 1.68 1.87 1.92 1.83 1.75 1.73 2.01 2.00 1.99 2.05 2.04
0.09 0.08 0.13 0.22 0.37 0.63 0.89 1.12 1.11 0.94 0.89 0.70 0.52 0.44 0.45 0.43 0.41 0.43 0.50 0.68 0.69 0.68 0.73 0.85 1.07 1.24 1.40 1.55 1.73 1.80 1.78 1.79 1.93 2.11 2.13 1.98 1.88 1.70 1.77 1.83 1.98 2.04 2.07 2.09 2.21 2.13 2.14 2.30 2.28
0.10 0.09 0.11 0.16 0.30 0.48 0.80 1.16 1.23 1.14 1.02 0.85 0.74 0.54 0.43 0.41 0.40 0.41 0.44 0.51 0.50 0.49 0.64 0.87 1.04 1.05 1.27 1.57 1.75 1.66 1.65 1.56 1.70 1.77 1.82 1.88 1.82 1.80 1.84 1.84 1.90 2.00 2.09 2.15 2.28 2.25 2.31 2.49 2.51
0.14 0.12 0.11 0.14 0.17 0.31 0.68 0.90 0.80 0.88 0.85 0.81 0.70 0.59 0.51 0.45 0.45 0.45 0.44 0.44 0.55 0.49 0.59 0.75 0.87 1.00 1.26 1.58 1.77 1.76 1.62 1.61 1.73 1.66 1.64 1.76 1.80 1.78 1.83 1.83 1.80 1.78 1.91 2.12 2.31 2.29 2.43 2.55 2.59
0.15 0.14 0.14 0.20 0.19 0.22 0.37 0.61 0.49 0.59 0.71 0.73 0.54 0.47 0.45 0.36 0.38 0.36 0.33 0.38 0.38 0.38 0.51 0.80 1.11 1.45 1.60 1.84 2.08 2.08 1.79 1.62 1.56 1.45 1.46 1.65 1.84 1.86 1.83 1.81 1.78 1.73 1.82 2.08 2.26 2.37 2.63 2.76 2.66

GEFSSGP_prec_meanprecacc_222.txt.gz
Total_Precipitation_Accumulation
0.06 0.13 0.36 0.62 1.12 1.56 1.29 0.67 0.49 0.36 0.33 0.45 0.43 0.32 0.34 0.46 0.64 1.00 0.62 0.51 0.28 0.20 0.21 0.33 0.39 0.35 0.41 0.41 0.46 0.54 0.52 0.51 0.48 0.49 0.52 0.65 0.71 0.70 0.69 0.75 0.81 0.93 1.06 1.05 0.99 0.77 0.60 0.53 0.50
0.10 0.20 0.43 0.81 1.50 1.79 1.13 0.51 0.37 0.30 0.37 0.44 0.35 0.28 0.32 0.31 0.28 0.28 0.40 0.47 0.23 0.14 0.15 0.16 0.29 0.31 0.30 0.34 0.40 0.45 0.44 0.43 0.44 0.46 0.47 0.52 0.59 0.61 0.67 0.77 0.85 0.98 0.94 0.81 0.74 0.60 0.46 0.40 0.40
0.14 0.23 0.51 0.88 1.14 1.21 0.64 0.31 0.27 0.27 0.39 0.41 0.34 0.29 0.33 0.38 0.35 0.32 0.28 0.27 0.17 0.12 0.13 0.17 0.23 0.24 0.24 0.27 0.34 0.36 0.35 0.36 0.39 0.42 0.46 0.48 0.51 0.62 0.76 0.83 0.88 0.83 0.71 0.63 0.60 0.52 0.43 0.35 0.35
0.17 0.30 0.50 0.69 0.75 0.61 0.36 0.24 0.24 0.28 0.39 0.33 0.29 0.39 0.44 0.49 0.31 0.27 0.23 0.18 0.14 0.13 0.13 0.17 0.22 0.20 0.21 0.23 0.27 0.31 0.33 0.35 0.36 0.37 0.44 0.50 0.62 0.71 0.75 0.75 0.72 0.67 0.59 0.52 0.45 0.40 0.38 0.34 0.35
0.18 0.39 0.58 0.65 0.55 0.37 0.27 0.24 0.25 0.25 0.25 0.31 0.35 0.54 0.61 0.58 0.35 0.39 0.39 0.26 0.13 0.14 0.16 0.18 0.22 0.20 0.20 0.22 0.25 0.29 0.31 0.35 0.37 0.37 0.42 0.53 0.67 0.70 0.65 0.57 0.55 0.52 0.43 0.41 0.42 0.41 0.34 0.36 0.39
0.21 0.34 0.44 0.47 0.36 0.23 0.26 0.24 0.21 0.21 0.27 0.36 0.46 0.49 0.66 0.62 0.48 0.65 0.58 0.43 0.24 0.20 0.23 0.26 0.28 0.26 0.24 0.24 0.25 0.27 0.29 0.32 0.36 0.38 0.40 0.46 0.53 0.55 0.51 0.47 0.48 0.45 0.40 0.38 0.40 0.40 0.37 0.39 0.44
0.19 0.24 0.28 0.28 0.24 0.21 0.20 0.19 0.19 0.20 0.34 0.46 0.50 0.60 0.82 0.92 0.68 0.67 0.74 0.69 0.45 0.42 0.52 0.46 0.36 0.31 0.32 0.33 0.33 0.32 0.35 0.38 0.39 0.40 0.39 0.44 0.47 0.48 0.47 0.47 0.46 0.45 0.43 0.42 0.38 0.36 0.38 0.42 0.47
0.11 0.14 0.15 0.14 0.13 0.16 0.13 0.15 0.18 0.21 0.29 0.46 0.57 0.72 1.04 0.99 0.81 0.81 0.87 1.00 0.77 0.64 0.66 0.62 0.50 0.45 0.36 0.32 0.35 0.39 0.43 0.46 0.44 0.41 0.43 0.45 0.44 0.46 0.49 0.49 0.56 0.56 0.58 0.61 0.57 0.49 0.45 0.50 0.57
0.07 0.13 0.12 0.10 0.08 0.09 0.08 0.11 0.17 0.23 0.30 0.36 0.59 0.77 0.80 0.73 0.93 1.00 1.15 1.38 1.35 1.07 0.98 0.84 0.56 0.48 0.46 0.40 0.39 0.50 0.52 0.54 0.59 0.58 0.55 0.68 0.84 0.83 0.93 0.78 0.89 0.87 0.90 0.90 0.90 0.84 0.81 0.81 0.71
0.06 0.10 0.08 0.05 0.05 0.06 0.06 0.08 0.16 0.33 0.49 0.74 0.98 0.95 0.74 0.74 1.05 1.24 1.43 1.70 1.75 1.60 1.40 1.16 0.85 0.68 0.62 0.55 0.63 0.72 0.73 0.85 0.91 1.08 1.10 1.35 1.59 1.52 1.12 1.18 1.43 1.48 1.47 1.40 1.44 1.57 1.40 1.22 1.05
0.04 0.04 0.04 0.04 0.04 0.04 0.04 0.07 0.11 0.24 0.68 1.18 1.42 1.33 1.13 1.00 1.25 1.60 1.92 2.23 2.03 1.75 1.58 1.47 1.25 1.02 0.83 0.89 0.92 1.01 1.16 1.46 1.34 1.27 1.41 1.78 1.63 1.36 1.25 1.40 1.70 1.99 1.94 1.89 1.97 2.12 1.77 1.84 2.03
0.02 0.02 0.02 0.02 0.02 0.02 0.03 0.06 0.15 0.26 0.67 0.94 1.17 1.26 1.30 1.30 1.38 1.60 1.92 2.20 2.41 2.31 2.07 1.86 1.71 1.50 1.43 1.35 1.27 1.21 1.27 1.42 1.43 1.60 1.48 1.79 1.92 1.79 1.76 1.98 2.04 2.24 2.43 2.81 2.64 2.76 2.62 2.50 2.32
0.02 0.02 0.01 0.02 0.02 0.02 0.03 0.08 0.18 0.29 0.55 0.62 0.71 0.87 1.16 1.39 1.72 2.02 2.18 2.52 2.65 2.75 2.55 2.40 2.26 2.17 2.15 2.01 1.83 1.46 1.53 1.53 1.58 1.83 1.85 1.94 2.19 2.28 2.37 2.36 2.29 2.13 2.46 2.89 3.13 2.83 3.11 3.10 2.67
0.02 0.01 0.01 0.02 0.03 0.04 0.05 0.10 0.21 0.34 0.49 0.56 0.64 0.85 1.12 1.46 1.74 2.17 2.47 2.87 2.88 2.92 3.05 3.14 3.01 2.90 2.89 2.70 2.50 2.22 2.01 2.13 2.06 2.11 2.26 2.43 2.66 2.84 2.90 2.72 2.62 2.37 2.38 2.67 2.88 2.86 3.11 2.98 2.82
0.02 0.02 0.06 0.06 0.06 0.08 0.15 0.26 0.39 0.52 0.57 0.75 0.84 1.10 1.27 1.59 1.96 2.05 2.23 2.49 2.81 3.09 3.54 3.81 3.85 3.76 3.73 3.61 3.27 2.89 2.71 2.73 2.89 3.00 3.02 2.96 3.08 3.34 3.23 3.01 2.66 2.50 2.55 2.71 2.66 2.67 2.74 2.59 2.52
0.02 0.05 0.14 0.15 0.10 0.11 0.19 0.50 0.60 0.63 0.74 0.95 1.00 1.24 1.54 1.62 1.97 2.11 2.14 2.35 2.93 3.40 3.96 4.26 4.41 4.64 4.52 4.47 4.15 3.64 3.40 3.29 3.27 3.36 3.38 3.29 3.34 3.22 3.19 2.89 2.50 2.56 2.62 2.62 2.66 2.51 2.57 2.59 2.61
0.05 0.10 0.17 0.23 0.15 0.16 0.23 0.53 0.66 0.69 0.88 1.04 1.19 1.23 1.39 1.61 2.03 2.32 2.46 2.61 3.12 3.72 4.38 4.78 5.28 5.57 5.45 5.17 4.69 4.20 4.06 3.86 3.67 3.65 3.58 3.45 3.23 3.06 3.17 2.87 2.74 2.67 2.65 2.49 2.26 2.59 2.75 2.77 2.77
0.08 0.10 0.17 0.27 0.18 0.17 0.30 0.52 0.73 0.83 0.99 1.15 1.19 1.18 1.33 1.62 1.84 2.19 2.50 2.91 3.34 3.78 4.53 5.17 5.74 5.95 5.71 5.17 4.74 4.56 4.36 4.04 3.80 3.52 3.30 3.07 2.94 2.73 2.91 2.66 2.62 2.74 2.78 2.56 2.55 2.80 2.82 2.54 2.61
0.06 0.09 0.18 0.25 0.16 0.19 0.33 0.52 0.73 0.91 1.06 1.13 1.29 1.28 1.47 1.73 1.88 2.26 2.61 3.05 3.50 4.01 4.75 5.37 5.79 5.77 5.57 5.19 4.80 4.52 4.04 3.73 3.47 3.18 2.95 2.73 2.48 2.38 2.70 2.47 2.73 2.62 2.49 2.33 2.30 2.39 2.41 2.16 2.40
0.07 0.11 0.23 0.25 0.16 0.17 0.33 0.56 0.84 0.94 0.91 0.94 1.16 1.27 1.35 1.54 1.84 2.18 2.69 2.98 3.32 3.84 4.40 4.81 4.80 4.47 4.34 4.32 4.21 3.95 3.96 3.81 3.67 3.41 3.18 2.79 2.61 2.47 2.33 2.50 2.33 2.27 2.33 2.16 2.05 2.24 2.23 1.99 2.34
0.07 0.10 0.16 0.21 0.23 0.25 0.36 0.71 0.99 1.03 0.90 0.85 0.88 1.00 1.13 1.28 1.48 1.82 2.37 2.67 2.85 3.31 3.66 3.68 3.56 3.39 3.43 3.48 3.44 3.52 3.73 3.73 3.68 3.52 3.24 2.95 2.80 2.68 2.54 2.44 2.24 2.16 1.99 2.04 2.08 2.15 2.18 2.09 2.10
0.10 0.07 0.08 0.11 0.21 0.43 0.49 0.89 1.20 1.29 1.20 0.98 0.88 1.00 1.08 1.19 1.25 1.54 1.86 2.08 2.33 2.55 2.69 2.68 2.77 2.78 2.80 2.83 2.82 2.74 2.76 2.94 3.15 3.36 3.40 3.34 3.11 2.86 2.59 2.42 2.19 2.00 1.86 2.02 1.75 1.85 2.14 2.21 1.95
0.07 0.06 0.07 0.11 0.16 0.31 0.43 0.70 1.14 1.41 1.56 1.23 0.99 0.90 0.87 1.03 1.27 1.46 1.56 1.71 1.80 1.82 1.94 2.01 2.30 2.61 2.71 2.76 2.85 2.75 2.47 2.45 2.50 2.64 2.78 2.79 2.78 2.62 2.34 2.22 2.14 1.98 1.83 1.81 1.78 2.02 2.04 2.00 1.93
0.07 0.11 0.18 0.27 0.39 0.62 0.59 0.65 1.04 1.29 1.43 1.15 0.96 0.89 0.77 0.79 0.98 1.19 1.44 1.52 1.46 1.43 1.59 1.81 2.11 2.48 2.69 2.74 2.70 2.66 2.56 2.51 2.43 2.44 2.48 2.36 2.34 2.28 2.13 2.04 2.07 1.93 1.80 1.78 1.78 1.91 1.98 2.05 2.12
0.09 0.16 0.51 0.87 1.18 1.21 0.71 0.69 0.94 0.98 0.92 0.93 0.81 0.76 0.80 0.74 0.73 0.74 0.93 1.16 1.13 1.10 1.25 1.51 1.70 1.99 2.21 2.31 2.30 2.23 2.33 2.43 2.31 2.18 2.11 2.04 1.90 1.81 1.82 1.90 1.99 1.83 1.77 1.84 1.97 1.95 1.90 2.01 2.11
0.08 0.12 0.37 0.63 0.81 0.93 0.75 1.10 1.24 0.92 0.77 0.68 0.57 0.54 0.61 0.58 0.53 0.51 0.58 0.72 0.94 0.95 1.00 1.11 1.35 1.55 1.74 1.83 1.94 2.04 2.21 2.30 2.25 2.40 2.22 2.07 1.78 1.64 1.69 1.88 1.94 1.85 1.78 1.75 2.04 2.04 2.03 2.09 2.08
0.09 0.08 0.13 0.22 0.37 0.63 0.89 1.12 1.11 0.94 0.89 0.70 0.52 0.44 0.45 0.43 0.41 0.43 0.50 0.68 0.70 0.69 0.75 0.86 1.08 1.26 1.42 1.57 1.73 1.80 1.79 1.80 1.93 2.12 2.14 1.99 1.90 1.71 1.78 1.84 2.00 2.07 2.11 2.13 2.27 2.17 2.17 2.34 2.32
0.10 0.09 0.11 0.17 0.30 0.49 0.80 1.16 1.23 1.14 1.02 0.85 0.74 0.54 0.43 0.41 0.40 0.41 0.44 0.52 0.51 0.50 0.65 0.87 1.05 1.07 1.28 1.58 1.76 1.66 1.65 1.57 1.70 1.78 1.83 1.89 1.84 1.82 1.85 1.86 1.93 2.03 2.14 2.20 2.34 2.31 2.36 2.54 2.56
0.14 0.12 0.11 0.14 0.17 0.31 0.68 0.90 0.80 0.88 0.85 0.82 0.70 0.59 0.51 0.45 0.45 0.45 0.45 0.44 0.55 0.50 0.59 0.76 0.88 1.00 1.28 1.59 1.79 1.78 1.63 1.62 1.74 1.68 1.66 1.78 1.81 1.79 1.85 1.86 1.83 1.81 1.94 2.15 2.34 2.32 2.47 2.59 2.64
0.15 0.14 0.14 0.20 0.19 0.22 0.37 0.61 0.49 0.59 0.71 0.73 0.54 0.48 0.45 0.36 0.38 0.36 0.33 0.38 0.38 0.39 0.51 0.80 1.12 1.46 1.61 1.85 2.10 2.09 1.80 1.63 1.57 1.46 1.47 1.66 1.84 1.87 1.84 1.82 1.79 1.75 1.84 2.10 2.28 2.39 2.65 2.78 2.68

GEFSSGP_prec_meanprecacc_228.txt.gz
Total_Precipitation_Accumulation
0.06 0.13 0.36 0.63 1.16 1.57 1.29 0.67 0.49 0.36 0.33 0.45 0.43 0.33 0.35 0.47 0.67 1.06 0.69 0.53 0.30 0.23 0.26 0.39 0.47 0.46 0.53 0.52 0.57 0.66 0.63 0.62 0.61 0.67 0.72 0.89 0.90 0.86 0.84 0.88 0.93 1.06 1.20 1.19 1.16 0.94 0.75 0.65 0.62
0.10 0.21 0.43 0.82 1.52 1.80 1.13 0.51 0.38 0.30 0.37 0.45 0.36 0.28 0.33 0.31 0.28 0.31 0.44 0.50 0.23 0.15 0.17 0.18 0.33 0.40 0.42 0.45 0.52 0.56 0.53 0.52 0.53 0.63 0.68 0.74 0.80 0.80 0.82 0.90 0.99 1.13 1.09 0.98 0.97 0.82 0.63 0.54 0.52
0.14 0.23 0.52 0.90 1.15 1.21 0.64 0.31 0.27 0.27 0.39 0.42 0.34 0.30 0.33 0.39 0.36 0.35 0.31 0.28 0.17 0.13 0.16 0.19 0.27 0.32 0.36 0.38 0.45 0.46 0.44 0.44 0.48 0.56 0.69 0.73 0.75 0.83 0.90 0.97 1.05 1.01 0.88 0.85 0.87 0.71 0.57 0.47 0.42
0.17 0.30 0.51 0.70 0.75 0.62 0.36 0.24 0.24 0.28 0.39 0.33 0.29 0.39 0.45 0.50 0.32 0.29 0.24 0.19 0.14 0.14 0.16 0.21 0.29 0.28 0.31 0.34 0.37 0.40 0.41 0.43 0.44 0.47 0.61 0.71 0.83 0.90 0.92 0.91 0.90 0.83 0.74 0.72 0.63 0.52 0.46 0.39 0.38
0.18 0.40 0.61 0.65 0.55 0.37 0.27 0.24 0.25 0.26 0.25 0.31 0.35 0.54 0.62 0.59 0.35 0.39 0.40 0.26 0.14 0.14 0.18 0.22 0.27 0.26 0.26 0.31 0.35 0.39 0.40 0.43 0.45 0.45 0.53 0.67 0.81 0.84 0.80 0.71 0.68 0.64 0.56 0.52 0.49 0.47 0.38 0.38 0.42
0.21 0.36 0.46 0.48 0.36 0.23 0.26 0.24 0.21 0.21 0.27 0.36 0.46 0.49 0.67 0.63 0.48 0.65 0.59 0.43 0.25 0.22 0.25 0.29 0.32 0.29 0.29 0.31 0.33 0.35 0.39 0.42 0.46 0.49 0.52 0.57 0.63 0.66 0.62 0.58 0.57 0.53 0.47 0.44 0.44 0.43 0.39 0.42 0.47
0.19 0.24 0.29 0.28 0.24 0.21 0.20 0.19 0.19 0.20 0.34 0.46 0.50 0.60 0.83 0.93 0.68 0.67 0.74 0.69 0.46 0.44 0.55 0.52 0.38 0.33 0.37 0.44 0.46 0.45 0.49 0.53 0.54 0.55 0.52 0.53 0.55 0.56 0.55 0.55 0.53 0.51 0.49 0.47 0.42 0.39 0.40 0.43 0.49
0.11 0.14 0.16 0.14 0.13 0.16 0.13 0.15 0.18 0.21 0.29 0.46 0.57 0.72 1.04 1.00 0.82 0.81 0.87 1.00 0.78 0.66 0.68 0.67 0.54 0.48 0.40 0.41 0.50 0.55 0.60 0.62 0.58 0.54 0.53 0.53 0.51 0.53 0.56 0.53 0.62 0.60 0.63 0.66 0.63 0.53 0.46 0.50 0.58
0.07 0.13 0.12 0.10 0.08 0.09 0.08 0.11 0.17 0.23 0.30 0.36 0.59 0.77 0.80 0.73 0.93 1.00 1.15 1.39 1.36 1.09 0.99 0.86 0.58 0.52 0.49 0.43 0.44 0.58 0.62 0.63 0.70 0.69 0.64 0.79 0.95 0.92 1.01 0.84 1.00 0.93 0.94 0.93 0.93 0.85 0.81 0.81 0.72
0.06 0.11 0.09 0.05 0.05 0.06 0.06 0.08 0.16 0.33 0.49 0.74 0.98 0.95 0.74 0.74 1.05 1.25 1.43 1.71 1.76 1.62 1.41 1.17 0.87 0.69 0.63 0.57 0.66 0.78 0.80 0.92 1.00 1.17 1.17 1.44 1.71 1.62 1.20 1.27 1.50 1.53 1.50 1.42 1.47 1.60 1.42 1.24 1.07
0.04 0.05 0.04 0.04 0.04 0.04 0.04 0.07 0.11 0.24 0.68 1.18 1.42 1.33 1.13 1.00 1.25 1.60 1.92 2.23 2.03 1.77 1.61 1.49 1.26 1.04 0.85 0.91 0.96 1.07 1.21 1.52 1.40 1.33 1.47 1.86 1.71 1.44 1.30 1.48 1.78 2.05 1.98 1.93 2.03 2.17 1.81 1.87 2.07
0.02 0.02 0.02 0.02 0.02 0.02 0.03 0.06 0.15 0.26 0.67 0.94 1.17 1.26 1.30 1.30 1.38 1.60 1.92 2.20 2.41 2.31 2.08 1.87 1.71 1.50 1.45 1.37 1.29 1.24 1.30 1.45 1.47 1.65 1.53 1.87 2.00 1.86 1.84 2.08 2.12 2.31 2.51 2.91 2.72 2.82 2.67 2.55 2.38
0.02 0.02 0.01 0.02 0.02 0.02 0.03 0.08 0.18 0.29 0.55 0.62 0.71 0.87 1.16 1.39 1.72 2.02 2.18 2.52 2.65 2.76 2.56 2.41 2.27 2.18 2.16 2.04 1.87 1.47 1.55 1.56 1.63 1.88 1.92 2.03 2.29 2.38 2.47 2.46 2.39 2.19 2.53 2.97 3.20 2.90 3.17 3.16 2.73
0.02 0.01 0.01 0.02 0.03 0.04 0.05 0.10 0.21 0.34 0.49 0.56 0.64 0.85 1.12 1.46 1.74 2.17 2.47 2.87 2.88 2.93 3.06 3.16 3.02 2.91 2.91 2.72 2.54 2.26 2.03 2.16 2.11 2.18 2.35 2.53 2.77 2.95 3.00 2.83 2.73 2.43 2.43 2.72 2.94 2.93 3.22 3.07 2.89
0.02 0.02 0.06 0.06 0.06 0.08 0.15 0.26 0.39 0.52 0.57 0.75 0.84 1.10 1.27 1.59 1.96 2.05 2.23 2.49 2.81 3.09 3.55 3.83 3.86 3.77 3.74 3.62 3.29 2.92 2.73 2.75 2.92 3.06 3.08 3.04 3.18 3.45 3.33 3.12 2.75 2.57 2.61 2.75 2.69 2.72 2.82 2.69 2.62
0.03 0.06 0.15 0.15 0.10 0.11 0.20 0.51 0.60 0.63 0.74 0.95 1.00 1.24 1.54 1.62 1.97 2.11 2.14 2.35 2.93 3.40 3.97 4.28 4.42 4.65 4.53 4.50 4.18 3.66 3.42 3.32 3.31 3.41 3.44 3.34 3.39 3.29 3.29 2.99 2.58 2.63 2.68 2.68 2.72 2.57 2.65 2.67 2.71
0.06 0.10 0.17 0.23 0.15 0.16 0.23 0.54 0.67 0.69 0.88 1.04 1.19 1.23 1.39 1.61 2.03 2.32 2.46 2.61 3.12 3.72 4.39 4.79 5.29 5.58 5.47 5.19 4.71 4.24 4.11 3.91 3.72 3.70 3.65 3.51 3.27 3.10 3.24 2.94 2.81 2.75 2.73 2.56 2.31 2.67 2.86 2.89 2.87
0.10 0.11 0.18 0.27 0.18 0.18 0.30 0.53 0.74 0.83 0.99 1.15 1.19 1.19 1.33 1.62 1.84 2.19 2.50 2.91 3.35 3.78 4.53 5.18 5.75 5.96 5.73 5.20 4.79 4.62 4.41 4.07 3.84 3.58 3.36 3.13 3.01 2.81 3.01 2.74 2.68 2.80 2.87 2.66 2.63 2.90 2.97 2.68 2.72
0.07 0.09 0.19 0.25 0.16 0.19 0.34 0.53 0.74 0.91 1.06 1.13 1.29 1.28 1.47 1.73 1.88 2.26 2.61 3.07 3.51 4.03 4.76 5.38 5.80 5.78 5.60 5.26 4.89 4.61 4.10 3.77 3.50 3.22 2.98 2.77 2.52 2.44 2.79 2.56 2.81 2.69 2.60 2.43 2.38 2.48 2.53 2.28 2.51
0.08 0.12 0.24 0.26 0.17 0.17 0.34 0.58 0.85 0.94 0.91 0.94 1.16 1.27 1.35 1.54 1.84 2.18 2.69 2.99 3.34 3.85 4.40 4.82 4.82 4.49 4.37 4.39 4.29 4.04 4.03 3.85 3.70 3.43 3.20 2.81 2.63 2.51 2.39 2.58 2.40 2.36 2.44 2.26 2.15 2.34 2.34 2.11 2.45
0.07 0.11 0.17 0.22 0.24 0.26 0.36 0.74 1.02 1.03 0.90 0.85 0.88 1.01 1.13 1.28 1.49 1.82 2.37 2.68 2.87 3.33 3.67 3.70 3.59 3.42 3.47 3.53 3.51 3.60 3.80 3.79 3.72 3.55 3.27 2.98 2.82 2.71 2.59 2.49 2.29 2.22 2.06 2.14 2.18 2.24 2.27 2.19 2.19
0.10 0.08 0.09 0.12 0.21 0.44 0.49 0.91 1.23 1.30 1.21 0.98 0.88 1.00 1.08 1.19 1.25 1.54 1.86 2.08 2.34 2.56 2.70 2.69 2.78 2.81 2.82 2.87 2.90 2.82 2.84 3.01 3.20 3.40 3.44 3.37 3.12 2.87 2.61 2.44 2.22 2.05 1.91 2.09 1.83 1.94 2.23 2.32 2.05
0.07 0.06 0.08 0.12 0.18 0.32 0.44 0.70 1.17 1.44 1.58 1.24 0.99 0.90 0.87 1.03 1.27 1.46 1.56 1.71 1.80 1.82 1.94 2.01 2.31 2.63 2.73 2.80 2.91 2.81 2.53 2.51 2.54 2.67 2.81 2.82 2.81 2.64 2.34 2.24 2.17 2.01 1.87 1.86 1.83 2.09 2.11 2.09 2.02
0.08 0.11 0.19 0.28 0.41 0.64 0.61 0.66 1.06 1.32 1.47 1.17 0.97 0.89 0.78 0.79 0.98 1.19 1.44 1.52 1.46 1.43 1.60 1.82 2.12 2.50 2.72 2.79 2.74 2.70 2.59 2.55 2.46 2.48 2.52 2.39 2.37 2.30 2.14 2.06 2.11 1.96 1.83 1.81 1.82 1.96 2.02 2.12 2.20
0.09 0.16 0.53 0.91 1.23 1.23 0.71 0.70 0.94 0.99 0.93 0.94 0.81 0.76 0.80 0.74 0.73 0.74 0.93 1.17 1.13 1.11 1.27 1.54 1.72 2.02 2.24 2.34 2.34 2.26 2.35 2.46 2.34 2.22 2.16 2.08 1.94 1.85 1.85 1.93 2.02 1.86 1.80 1.86 2.00 2.00 1.95 2.07 2.17
0.08 0.13 0.39 0.67 0.85 0.96 0.77 1.10 1.25 0.92 0.77 0.68 0.57 0.54 0.61 0.58 0.53 0.51 0.58 0.73 0.94 0.96 1.02 1.13 1.37 1.58 1.77 1.85 1.97 2.08 2.23 2.34 2.28 2.43 2.24 2.09 1.80 1.65 1.71 1.90 1.96 1.87 1.80 1.78 2.09 2.08 2.08 2.16 2.15
0.09 0.08 0.14 0.24 0.38 0.65 0.91 1.14 1.13 0.94 0.89 0.70 0.52 0.45 0.45 0.43 0.42 0.43 0.50 0.69 0.70 0.71 0.77 0.87 1.10 1.29 1.45 1.59 1.75 1.83 1.80 1.82 1.95 2.13 2.16 2.01 1.91 1.72 1.79 1.86 2.03 2.10 2.15 2.17 2.32 2.24 2.23 2.40 2.38
0.10 0.09 0.11 0.19 0.33 0.51 0.82 1.18 1.25 1.15 1.02 0.85 0.74 0.54 0.43 0.41 0.40 0.41 0.44 0.52 0.52 0.52 0.65 0.88 1.06 1.09 1.31 1.61 1.78 1.68 1.66 1.57 1.72 1.81 1.85 1.91 1.86 1.83 1.86 1.87 1.95 2.06 2.17 2.24 2.40 2.38 2.43 2.60 2.62
0.14 0.12 0.11 0.15 0.20 0.34 0.71 0.93 0.83 0.89 0.85 0.82 0.70 0.60 0.51 0.45 0.45 0.45 0.45 0.45 0.56 0.50 0.60 0.77 0.89 1.02 1.31 1.61 1.80 1.79 1.64 1.62 1.75 1.69 1.67 1.80 1.83 1.81 1.86 1.87 1.84 1.83 1.97 2.19 2.39 2.37 2.52 2.64 2.70
0.15 0.14 0.15 0.21 0.21 0.24 0.39 0.62 0.50 0.60 0.72 0.73 0.54 0.48 0.45 0.36 0.38 0.36 0.33 0.39 0.40 0.40 0.52 0.81 1.12 1.47 1.63 1.87 2.10 2.10 1.81 1.64 1.58 1.47 1.49 1.67 1.86 1.88 1.84 1.83 1.80 1.76 1.86 2.12 2.31 2.42 2.67 2.81 2.73

GEFSSGP_prec_meanprecacc_234.txt.gz
Total_Precipitation_Accumulation
0.07 0.15 0.40 0.76 1.27 1.62 1.31 0.67 0.50 0.36 0.34 0.46 0.45 0.34 0.36 0.48 0.68 1.09 0.75 0.58 0.33 0.29 0.37 0.52 0.61 0.58 0.62 0.62 0.67 0.76 0.75 0.77 0.81 0.88 0.85 0.99 1.00 0.95 0.94 0.99 1.03 1.13 1.29 1.29 1.26 1.03 0.83 0.74 0.72
0.11 0.23 0.51 0.96 1.60 1.84 1.16 0.53 0.39 0.31 0.38 0.46 0.37 0.29 0.33 0.32 0.29 0.34 0.49 0.53 0.25 0.20 0.25 0.27 0.44 0.48 0.49 0.52 0.59 0.62 0.64 0.65 0.72 0.85 0.87 0.93 0.97 0.94 0.93 1.01 1.09 1.23 1.20 1.08 1.05 0.90 0.71 0.64 0.62
0.15 0.25 0.61 0.99 1.20 1.24 0.65 0.32 0.29 0.28 0.40 0.42 0.35 0.30 0.33 0.41 0.39 0.39 0.37 0.31 0.19 0.16 0.19 0.24 0.33 0.38 0.42 0.44 0.51 0.51 0.50 0.54 0.62 0.73 0.86 0.95 0.95 0.97 1.01 1.06 1.16 1.12 0.97 0.92 0.94 0.80 0.67 0.58 0.53
0.19 0.33 0.56 0.75 0.79 0.64 0.37 0.25 0.25 0.28 0.39 0.34 0.29 0.39 0.46 0.52 0.33 0.31 0.32 0.26 0.18 0.17 0.20 0.26 0.35 0.33 0.36 0.40 0.43 0.45 0.45 0.50 0.54 0.60 0.75 0.90 1.02 1.05 1.04 1.02 1.00 0.91 0.81 0.79 0.71 0.63 0.57 0.50 0.47
0.20 0.44 0.67 0.68 0.57 0.39 0.29 0.25 0.25 0.26 0.25 0.31 0.35 0.54 0.64 0.62 0.36 0.40 0.42 0.30 0.18 0.21 0.26 0.30 0.34 0.30 0.30 0.36 0.40 0.43 0.44 0.47 0.51 0.54 0.65 0.82 0.98 1.02 0.94 0.82 0.78 0.74 0.66 0.60 0.59 0.58 0.47 0.46 0.48
0.24 0.41 0.51 0.50 0.38 0.24 0.26 0.25 0.21 0.21 0.27 0.36 0.46 0.49 0.70 0.65 0.50 0.67 0.61 0.47 0.30 0.31 0.38 0.43 0.44 0.40 0.36 0.36 0.39 0.40 0.44 0.47 0.51 0.55 0.61 0.69 0.77 0.81 0.75 0.70 0.71 0.68 0.59 0.53 0.52 0.50 0.45 0.47 0.51
0.22 0.29 0.35 0.31 0.25 0.21 0.20 0.20 0.19 0.20 0.34 0.46 0.50 0.60 0.85 0.95 0.70 0.68 0.76 0.72 0.51 0.52 0.66 0.65 0.55 0.53 0.56 0.57 0.56 0.54 0.58 0.61 0.60 0.62 0.59 0.62 0.65 0.70 0.71 0.71 0.67 0.63 0.58 0.53 0.47 0.43 0.43 0.48 0.53
0.14 0.16 0.18 0.16 0.14 0.16 0.13 0.15 0.18 0.22 0.29 0.46 0.57 0.72 1.05 1.01 0.82 0.82 0.89 1.03 0.82 0.71 0.73 0.73 0.63 0.62 0.59 0.60 0.67 0.68 0.70 0.72 0.68 0.63 0.59 0.59 0.57 0.61 0.65 0.61 0.71 0.68 0.69 0.69 0.65 0.56 0.50 0.54 0.62
0.09 0.14 0.13 0.11 0.08 0.09 0.08 0.11 0.17 0.24 0.30 0.36 0.59 0.77 0.81 0.74 0.93 1.01 1.17 1.42 1.38 1.13 1.03 0.90 0.63 0.58 0.56 0.51 0.54 0.69 0.74 0.77 0.82 0.78 0.70 0.84 0.99 0.96 1.06 0.91 1.11 1.00 0.99 0.96 0.95 0.88 0.85 0.85 0.75
0.08 0.12 0.10 0.06 0.05 0.06 0.06 0.09 0.16 0.34 0.50 0.74 0.98 0.95 0.74 0.74 1.06 1.25 1.44 1.72 1.78 1.64 1.45 1.21 0.92 0.74 0.69 0.63 0.72 0.85 0.88 0.99 1.05 1.21 1.20 1.49 1.74 1.66 1.25 1.35 1.60 1.60 1.54 1.46 1.50 1.62 1.44 1.25 1.08
0.05 0.06 0.04 0.05 0.04 0.04 0.04 0.08 0.11 0.24 0.68 1.18 1.42 1.33 1.13 1.00 1.25 1.60 1.93 2.24 2.04 1.78 1.64 1.53 1.29 1.07 0.88 0.96 0.99 1.11 1.28 1.59 1.44 1.39 1.51 1.91 1.76 1.49 1.37 1.54 1.86 2.10 2.03 1.98 2.05 2.19 1.83 1.90 2.10
0.03 0.03 0.02 0.03 0.03 0.03 0.04 0.06 0.15 0.26 0.67 0.94 1.17 1.26 1.30 1.30 1.38 1.60 1.92 2.21 2.42 2.33 2.11 1.90 1.73 1.51 1.47 1.39 1.32 1.28 1.36 1.52 1.53 1.71 1.59 1.94 2.06 1.91 1.90 2.13 2.16 2.36 2.54 2.95 2.76 2.86 2.70 2.60 2.44
0.02 0.02 0.02 0.02 0.02 0.02 0.03 0.09 0.18 0.29 0.55 0.62 0.72 0.87 1.16 1.39 1.73 2.02 2.18 2.52 2.65 2.77 2.57 2.43 2.28 2.19 2.17 2.06 1.89 1.51 1.59 1.60 1.68 1.94 2.01 2.12 2.34 2.42 2.50 2.49 2.42 2.23 2.57 3.01 3.26 2.96 3.23 3.22 2.81
0.03 0.02 0.01 0.02 0.03 0.04 0.05 0.10 0.21 0.35 0.49 0.56 0.65 0.85 1.12 1.46 1.74 2.17 2.47 2.87 2.88 2.93 3.06 3.16 3.03 2.91 2.92 2.73 2.57 2.29 2.07 2.20 2.16 2.25 2.45 2.59 2.81 2.98 3.04 2.87 2.78 2.46 2.46 2.75 3.00 3.01 3.35 3.19 3.02
0.03 0.03 0.06 0.07 0.06 0.08 0.15 0.26 0.40 0.52 0.57 0.75 0.85 1.10 1.27 1.59 1.96 2.05 2.23 2.49 2.81 3.09 3.55 3.83 3.86 3.78 3.75 3.63 3.32 2.95 2.78 2.79 3.00 3.13 3.13 3.08 3.20 3.48 3.36 3.15 2.78 2.60 2.63 2.78 2.74 2.79 2.91 2.80 2.72
0.04 0.07 0.16 0.15 0.10 0.11 0.20 0.51 0.61 0.63 0.74 0.95 1.00 1.24 1.54 1.62 1.97 2.11 2.14 2.35 2.94 3.41 3.97 4.28 4.43 4.66 4.54 4.51 4.19 3.68 3.45 3.38 3.40 3.48 3.49 3.38 3.42 3.31 3.31 3.01 2.61 2.66 2.70 2.71 2.78 2.65 2.72 2.75 2.78
0.08 0.12 0.19 0.24 0.15 0.16 0.24 0.55 0.68 0.70 0.88 1.04 1.20 1.27 1.41 1.61 2.04 2.33 2.48 2.63 3.16 3.75 4.41 4.81 5.30 5.59 5.47 5.20 4.73 4.27 4.15 3.96 3.77 3.74 3.69 3.54 3.29 3.12 3.26 2.96 2.83 2.78 2.75 2.60 2.36 2.72 2.91 2.93 2.91
0.13 0.13 0.21 0.29 0.19 0.18 0.32 0.53 0.75 0.84 0.99 1.15 1.20 1.21 1.35 1.64 1.85 2.21 2.53 2.96 3.40 3.83 4.57 5.20 5.76 5.97 5.74 5.21 4.82 4.66 4.44 4.10 3.87 3.60 3.39 3.16 3.03 2.84 3.04 2.76 2.70 2.82 2.89 2.69 2.66 2.93 2.99 2.72 2.76
0.09 0.11 0.21 0.27 0.18 0.21 0.36 0.56 0.76 0.92 1.07 1.14 1.30 1.29 1.50 1.75 1.90 2.27 2.63 3.11 3.55 4.05 4.77 5.39 5.82 5.79 5.61 5.26 4.90 4.64 4.12 3.79 3.52 3.24 3.01 2.80 2.56 2.48 2.82 2.58 2.84 2.72 2.62 2.45 2.40 2.51 2.56 2.32 2.54
0.09 0.14 0.25 0.27 0.18 0.19 0.36 0.61 0.88 0.96 0.92 0.95 1.17 1.28 1.37 1.57 1.86 2.20 2.71 3.01 3.37 3.87 4.43 4.84 4.84 4.51 4.38 4.39 4.30 4.06 4.05 3.86 3.72 3.44 3.22 2.83 2.67 2.56 2.42 2.59 2.42 2.38 2.46 2.28 2.17 2.36 2.36 2.13 2.47
0.08 0.13 0.20 0.24 0.25 0.28 0.39 0.76 1.05 1.07 0.93 0.86 0.90 1.02 1.15 1.30 1.50 1.83 2.38 2.69 2.88 3.35 3.69 3.72 3.61 3.43 3.48 3.54 3.53 3.61 3.82 3.80 3.73 3.57 3.29 3.00 2.85 2.74 2.61 2.50 2.31 2.25 2.08 2.16 2.20 2.26 2.30 2.22 2.22
0.10 0.09 0.11 0.14 0.23 0.46 0.52 0.95 1.26 1.35 1.26 1.02 0.90 1.01 1.09 1.21 1.26 1.56 1.87 2.10 2.36 2.60 2.72 2.71 2.80 2.82 2.84 2.89 2.92 2.83 2.86 3.02 3.21 3.41 3.46 3.39 3.14 2.88 2.62 2.45 2.24 2.07 1.93 2.12 1.85 1.96 2.25 2.34 2.08
0.07 0.07 0.09 0.14 0.21 0.35 0.46 0.74 1.20 1.48 1.61 1.27 1.02 0.92 0.88 1.04 1.29 1.48 1.58 1.74 1.83 1.86 1.97 2.04 2.33 2.64 2.75 2.82 2.91 2.83 2.55 2.52 2.56 2.69 2.83 2.84 2.82 2.65 2.36 2.25 2.18 2.03 1.89 1.89 1.85 2.11 2.14 2.11 2.05
0.08 0.12 0.20 0.30 0.44 0.68 0.63 0.68 1.09 1.35 1.51 1.22 1.00 0.91 0.79 0.81 0.99 1.21 1.46 1.54 1.49 1.46 1.62 1.83 2.13 2.52 2.74 2.81 2.76 2.71 2.60 2.57 2.48 2.49 2.54 2.41 2.38 2.32 2.16 2.07 2.12 1.98 1.85 1.84 1.85 1.99 2.05 2.15 2.24
0.09 0.17 0.54 0.93 1.25 1.27 0.75 0.72 0.96 1.02 0.96 0.96 0.83 0.78 0.82 0.76 0.76 0.77 0.95 1.19 1.16 1.12 1.29 1.55 1.73 2.04 2.26 2.37 2.35 2.27 2.36 2.47 2.36 2.23 2.16 2.09 1.95 1.86 1.87 1.94 2.03 1.87 1.81 1.88 2.02 2.02 1.98 2.12 2.22
0.08 0.13 0.39 0.68 0.86 0.98 0.81 1.13 1.27 0.95 0.79 0.70 0.58 0.56 0.65 0.60 0.56 0.55 0.61 0.75 0.96 0.98 1.04 1.15 1.38 1.60 1.79 1.87 1.98 2.08 2.24 2.34 2.29 2.43 2.24 2.09 1.80 1.66 1.72 1.91 1.97 1.89 1.82 1.80 2.12 2.12 2.12 2.20 2.18
0.10 0.09 0.14 0.25 0.39 0.67 0.94 1.16 1.15 0.97 0.91 0.72 0.54 0.47 0.49 0.47 0.46 0.46 0.54 0.71 0.73 0.73 0.79 0.90 1.13 1.32 1.47 1.60 1.76 1.83 1.81 1.82 1.95 2.14 2.16 2.01 1.92 1.73 1.80 1.87 2.04 2.12 2.17 2.19 2.34 2.26 2.25 2.43 2.41
0.10 0.09 0.12 0.19 0.34 0.53 0.85 1.22 1.30 1.21 1.06 0.89 0.78 0.57 0.45 0.44 0.46 0.44 0.46 0.53 0.54 0.53 0.67 0.91 1.10 1.13 1.33 1.62 1.78 1.68 1.67 1.58 1.72 1.81 1.85 1.91 1.86 1.84 1.88 1.89 1.95 2.06 2.17 2.26 2.41 2.39 2.45 2.62 2.64
0.15 0.12 0.12 0.16 0.20 0.35 0.73 0.96 0.90 0.96 0.90 0.87 0.76 0.63 0.54 0.47 0.47 0.47 0.46 0.46 0.57 0.51 0.61 0.78 0.91 1.04 1.33 1.62 1.81 1.80 1.64 1.63 1.75 1.70 1.67 1.80 1.84 1.82 1.87 1.88 1.85 1.84 1.98 2.20 2.40 2.38 2.52 2.64 2.70
0.16 0.15 0.15 0.22 0.22 0.25 0.40 0.64 0.53 0.63 0.75 0.78 0.62 0.54 0.49 0.38 0.39 0.37 0.34 0.40 0.40 0.40 0.52 0.82 1.13 1.47 1.63 1.87 2.11 2.11 1.81 1.64 1.59 1.49 1.50 1.67 1.86 1.89 1.85 1.84 1.81 1.77 1.87 2.13 2.32 2.43 2.68 2.81 2.73

GEFSSGP_prec_meanprecacc_240.txt.gz
Total_Precipitation_Accumulation
0.07 0.15 0.41 0.76 1.27 1.63 1.31 0.68 0.51 0.37 0.34 0.47 0.45 0.35 0.36 0.49 0.69 1.11 0.86 0.79 0.57 0.49 0.53 0.69 0.79 0.73 0.73 0.73 0.77 0.87 0.86 0.88 0.92 0.98 0.95 1.08 1.09 1.03 1.01 1.08 1.15 1.30 1.45 1.42 1.37 1.13 0.91 0.80 0.77
0.11 0.23 0.52 0.96 1.60 1.84 1.17 0.54 0.40 0.32 0.39 0.46 0.37 0.29 0.34 0.33 0.30 0.36 0.59 0.65 0.37 0.32 0.37 0.38 0.57 0.58 0.60 0.63 0.70 0.74 0.75 0.77 0.84 0.96 0.95 1.01 1.04 1.00 1.01 1.12 1.21 1.35 1.32 1.20 1.16 0.99 0.78 0.69 0.67
0.16 0.27 0.62 1.00 1.21 1.24 0.66 0.33 0.29 0.28 0.40 0.43 0.35 0.31 0.34 0.42 0.39 0.41 0.43 0.38 0.27 0.25 0.30 0.36 0.42 0.45 0.49 0.54 0.62 0.62 0.63 0.67 0.77 0.86 0.96 1.02 1.02 1.03 1.09 1.17 1.27 1.23 1.07 1.02 1.04 0.88 0.73 0.63 0.58
0.20 0.34 0.57 0.76 0.80 0.64 0.37 0.25 0.25 0.29 0.40 0.35 0.30 0.40 0.48 0.53 0.34 0.33 0.35 0.31 0.23 0.24 0.29 0.36 0.42 0.38 0.41 0.47 0.50 0.54 0.57 0.64 0.71 0.76 0.92 1.02 1.13 1.15 1.14 1.13 1.10 1.01 0.91 0.91 0.82 0.71 0.64 0.56 0.55
0.20 0.44 0.67 0.69 0.58 0.39 0.30 0.25 0.26 0.26 0.25 0.32 0.36 0.55 0.67 0.64 0.37 0.41 0.44 0.35 0.26 0.31 0.34 0.37 0.41 0.36 0.37 0.43 0.46 0.52 0.55 0.61 0.70 0.76 0.84 0.97 1.10 1.13 1.06 0.95 0.88 0.85 0.78 0.73 0.72 0.68 0.58 0.57 0.58
0.25 0.42 0.52 0.51 0.38 0.25 0.27 0.25 0.22 0.22 0.27 0.37 0.46 0.50 0.72 0.69 0.52 0.70 0.66 0.54 0.41 0.42 0.44 0.48 0.51 0.47 0.43 0.43 0.46 0.50 0.55 0.67 0.74 0.79 0.84 0.88 0.92 0.94 0.89 0.83 0.80 0.78 0.70 0.68 0.67 0.62 0.56 0.56 0.59
0.22 0.29 0.35 0.32 0.26 0.22 0.21 0.20 0.20 0.21 0.35 0.46 0.50 0.61 0.86 0.98 0.74 0.73 0.83 0.81 0.62 0.62 0.73 0.70 0.59 0.58 0.61 0.65 0.66 0.63 0.69 0.78 0.79 0.85 0.83 0.85 0.86 0.87 0.86 0.83 0.78 0.74 0.69 0.68 0.62 0.55 0.52 0.53 0.59
0.14 0.17 0.18 0.17 0.15 0.18 0.14 0.16 0.19 0.22 0.29 0.46 0.57 0.72 1.05 1.03 0.85 0.86 0.94 1.09 0.89 0.78 0.79 0.78 0.67 0.66 0.63 0.66 0.75 0.76 0.80 0.85 0.84 0.80 0.78 0.78 0.76 0.78 0.79 0.73 0.82 0.78 0.79 0.80 0.77 0.68 0.57 0.61 0.67
0.10 0.14 0.13 0.11 0.08 0.10 0.09 0.11 0.17 0.24 0.30 0.36 0.59 0.77 0.81 0.74 0.95 1.04 1.21 1.48 1.46 1.20 1.10 0.95 0.67 0.62 0.59 0.55 0.60 0.75 0.82 0.89 0.95 0.89 0.81 0.94 1.09 1.06 1.16 1.01 1.21 1.08 1.07 1.05 1.05 0.97 0.94 0.91 0.80
0.09 0.12 0.10 0.06 0.05 0.06 0.06 0.09 0.16 0.34 0.50 0.74 0.98 0.95 0.74 0.75 1.06 1.26 1.46 1.77 1.85 1.72 1.53 1.27 0.97 0.78 0.73 0.67 0.77 0.90 0.93 1.05 1.12 1.25 1.23 1.53 1.79 1.71 1.31 1.42 1.71 1.70 1.63 1.55 1.60 1.71 1.52 1.32 1.13
0.05 0.06 0.05 0.05 0.04 0.05 0.05 0.08 0.11 0.24 0.69 1.19 1.42 1.33 1.13 1.00 1.25 1.61 1.94 2.26 2.08 1.85 1.73 1.62 1.36 1.13 0.94 1.02 1.05 1.16 1.32 1.62 1.48 1.41 1.53 1.93 1.78 1.51 1.39 1.58 1.91 2.18 2.10 2.03 2.11 2.25 1.88 1.94 2.14
0.03 0.03 0.02 0.03 0.03 0.03 0.04 0.06 0.15 0.26 0.67 0.94 1.17 1.26 1.30 1.30 1.38 1.61 1.93 2.22 2.44 2.37 2.18 1.97 1.81 1.59 1.56 1.48 1.39 1.35 1.41 1.56 1.57 1.74 1.62 1.97 2.08 1.94 1.92 2.15 2.19 2.39 2.59 2.99 2.78 2.88 2.74 2.65 2.50
0.02 0.02 0.02 0.02 0.02 0.02 0.03 0.09 0.18 0.29 0.56 0.62 0.72 0.87 1.16 1.39 1.73 2.02 2.18 2.53 2.66 2.79 2.60 2.45 2.32 2.25 2.23 2.11 1.94 1.56 1.63 1.65 1.72 1.98 2.05 2.16 2.38 2.45 2.52 2.51 2.45 2.26 2.60 3.04 3.30 3.00 3.28 3.28 2.86
0.03 0.02 0.02 0.02 0.03 0.04 0.05 0.11 0.21 0.35 0.49 0.56 0.65 0.85 1.12 1.46 1.75 2.18 2.47 2.87 2.89 2.94 3.07 3.17 3.04 2.94 2.94 2.75 2.60 2.33 2.11 2.24 2.19 2.30 2.49 2.63 2.85 3.02 3.06 2.90 2.80 2.48 2.48 2.78 3.03 3.06 3.43 3.27 3.08
0.03 0.03 0.06 0.07 0.06 0.08 0.15 0.26 0.40 0.52 0.57 0.75 0.85 1.10 1.27 1.59 1.96 2.06 2.24 2.51 2.83 3.10 3.56 3.84 3.88 3.80 3.77 3.65 3.35 2.99 2.83 2.85 3.04 3.18 3.17 3.11 3.25 3.52 3.38 3.17 2.81 2.62 2.65 2.83 2.79 2.84 2.96 2.86 2.77
0.04 0.07 0.16 0.16 0.10 0.12 0.20 0.51 0.61 0.63 0.74 0.95 1.00 1.24 1.54 1.63 1.98 2.11 2.16 2.37 2.96 3.42 3.99 4.29 4.44 4.67 4.55 4.52 4.21 3.71 3.48 3.42 3.44 3.51 3.53 3.41 3.45 3.34 3.34 3.04 2.65 2.69 2.72 2.75 2.82 2.69 2.76 2.79 2.81
0.09 0.13 0.20 0.25 0.15 0.17 0.24 0.55 0.68 0.70 0.89 1.04 1.20 1.27 1.41 1.62 2.05 2.35 2.51 2.64 3.18 3.77 4.42 4.82 5.31 5.60 5.49 5.22 4.76 4.31 4.18 3.99 3.81 3.78 3.72 3.57 3.33 3.16 3.30 3.01 2.86 2.80 2.76 2.62 2.39 2.76 2.93 2.94 2.93
0.14 0.14 0.22 0.30 0.19 0.19 0.32 0.54 0.75 0.84 0.99 1.16 1.20 1.21 1.36 1.64 1.87 2.25 2.60 2.99 3.43 3.85 4.58 5.21 5.78 5.99 5.76 5.23 4.86 4.69 4.47 4.13 3.89 3.63 3.43 3.20 3.07 2.86 3.06 2.79 2.71 2.82 2.89 2.70 2.67 2.94 3.00 2.73 2.78
0.09 0.12 0.21 0.27 0.18 0.21 0.37 0.57 0.77 0.92 1.07 1.14 1.30 1.30 1.50 1.76 1.92 2.30 2.66 3.13 3.58 4.07 4.79 5.40 5.82 5.81 5.63 5.30 4.94 4.66 4.15 3.82 3.54 3.26 3.04 2.83 2.58 2.50 2.85 2.59 2.85 2.73 2.63 2.46 2.41 2.53 2.58 2.33 2.55
0.09 0.14 0.26 0.28 0.19 0.20 0.37 0.62 0.90 0.97 0.93 0.96 1.17 1.29 1.37 1.58 1.87 2.22 2.73 3.03 3.39 3.89 4.44 4.85 4.84 4.52 4.40 4.42 4.34 4.09 4.07 3.88 3.73 3.46 3.24 2.86 2.69 2.59 2.44 2.61 2.43 2.39 2.47 2.29 2.18 2.38 2.37 2.14 2.48
0.08 0.13 0.20 0.24 0.26 0.29 0.40 0.77 1.06 1.08 0.94 0.87 0.90 1.02 1.15 1.30 1.51 1.85 2.40 2.71 2.91 3.39 3.70 3.73 3.62 3.45 3.50 3.57 3.56 3.64 3.83 3.81 3.74 3.58 3.31 3.01 2.87 2.76 2.64 2.52 2.33 2.26 2.09 2.17 2.21 2.28 2.32 2.24 2.24
0.11 0.09 0.11 0.15 0.25 0.48 0.53 0.96 1.26 1.36 1.26 1.02 0.91 1.02 1.09 1.21 1.27 1.57 1.90 2.13 2.40 2.64 2.74 2.73 2.80 2.83 2.86 2.93 2.96 2.85 2.86 3.03 3.23 3.43 3.48 3.41 3.15 2.91 2.64 2.47 2.25 2.08 1.95 2.13 1.87 1.97 2.26 2.36 2.10
0.08 0.07 0.09 0.14 0.22 0.37 0.47 0.74 1.21 1.48 1.61 1.27 1.02 0.93 0.88 1.04 1.29 1.49 1.60 1.76 1.86 1.88 1.98 2.05 2.33 2.66 2.78 2.87 2.96 2.85 2.56 2.53 2.57 2.70 2.85 2.85 2.82 2.66 2.37 2.25 2.18 2.04 1.91 1.91 1.87 2.14 2.15 2.12 2.07
0.08 0.12 0.20 0.31 0.45 0.69 0.63 0.69 1.09 1.35 1.51 1.22 1.00 0.91 0.79 0.81 1.00 1.22 1.48 1.56 1.51 1.48 1.63 1.84 2.14 2.56 2.79 2.85 2.78 2.73 2.61 2.58 2.50 2.50 2.54 2.42 2.39 2.32 2.16 2.08 2.13 1.99 1.86 1.86 1.86 2.00 2.06 2.16 2.25
0.10 0.18 0.55 0.93 1.26 1.27 0.75 0.72 0.96 1.02 0.96 0.97 0.83 0.78 0.82 0.76 0.76 0.78 0.96 1.21 1.18 1.13 1.29 1.56 1.75 2.09 2.32 2.40 2.37 2.28 2.38 2.48 2.36 2.24 2.16 2.09 1.96 1.88 1.88 1.95 2.04 1.88 1.82 1.89 2.04 2.03 2.00 2.15 2.25
0.09 0.13 0.40 0.69 0.87 0.99 0.82 1.13 1.27 0.95 0.79 0.70 0.58 0.57 0.66 0.62 0.57 0.55 0.62 0.78 1.00 1.00 1.05 1.17 1.42 1.67 1.87 1.91 2.00 2.10 2.25 2.35 2.30 2.44 2.24 2.09 1.81 1.67 1.73 1.92 1.98 1.90 1.83 1.81 2.14 2.13 2.14 2.22 2.21
0.10 0.09 0.15 0.25 0.40 0.67 0.94 1.17 1.15 0.97 0.91 0.73 0.54 0.47 0.49 0.48 0.47 0.47 0.55 0.73 0.76 0.74 0.80 0.92 1.15 1.35 1.50 1.62 1.77 1.84 1.82 1.83 1.96 2.14 2.16 2.01 1.92 1.73 1.81 1.88 2.05 2.13 2.19 2.21 2.34 2.27 2.27 2.44 2.42
0.11 0.10 0.12 0.19 0.34 0.53 0.85 1.22 1.30 1.21 1.06 0.89 0.78 0.57 0.46 0.45 0.47 0.45 0.47 0.55 0.55 0.54 0.68 0.93 1.11 1.14 1.35 1.64 1.80 1.71 1.71 1.61 1.73 1.81 1.85 1.91 1.86 1.85 1.88 1.90 1.97 2.09 2.20 2.26 2.41 2.39 2.45 2.64 2.65
0.15 0.13 0.12 0.16 0.20 0.35 0.73 0.97 0.90 0.96 0.91 0.87 0.76 0.64 0.55 0.48 0.48 0.48 0.46 0.47 0.58 0.52 0.61 0.79 0.92 1.05 1.34 1.64 1.84 1.84 1.71 1.68 1.77 1.71 1.67 1.80 1.84 1.82 1.87 1.88 1.86 1.85 1.99 2.20 2.41 2.38 2.54 2.66 2.72
0.16 0.16 0.16 0.22 0.22 0.25 0.40 0.65 0.53 0.64 0.75 0.78 0.63 0.55 0.49 0.39 0.40 0.38 0.35 0.41 0.41 0.41 0.53 0.82 1.13 1.48 1.64 1.89 2.15 2.16 1.87 1.67 1.61 1.50 1.51 1.68 1.86 1.89 1.85 1.84 1.81 1.78 1.88 2.15 2.33 2.45 2.69 2.82 2.74